Wetterdaten: Sonntag, 06.11.2016
Datum Zeit Temp. A. Feuchte A. Luftdruck Regen Wind Richtung Richtung Sonnenschein ET UV Solar Taupunkt Windchill Windben Empfang
06.11.2016 00:00 2,8 C 98 % 1000,6 hPa 0,0 l/m 0,3 km/h (0 Bft) S 178 0 min 0,000 mm 0,0 UV-I 0 W/m 2,5 C 2,8 C 1,6 km/h (1 Bft) 98,00 %
06.11.2016 00:02 2,9 C 98 % 1000,7 hPa 0,0 l/m 1,2 km/h (1 Bft) S 178 0 min 0,000 mm 0,0 UV-I 0 W/m 2,6 C 2,9 C 3,2 km/h (1 Bft) 100,00 %
06.11.2016 00:04 2,9 C 98 % 1000,6 hPa 0,0 l/m 1,6 km/h (1 Bft) S 178 0 min 0,000 mm 0,0 UV-I 0 W/m 2,6 C 2,9 C 3,2 km/h (1 Bft) 100,00 %
06.11.2016 00:06 2,9 C 98 % 1000,7 hPa 0,0 l/m 0,8 km/h (0 Bft) S 178 0 min 0,000 mm 0,0 UV-I 0 W/m 2,6 C 2,9 C 3,2 km/h (1 Bft) 100,00 %
06.11.2016 00:08 3,0 C 98 % 1000,7 hPa 0,0 l/m 1,3 km/h (1 Bft) S 178 0 min 0,000 mm 0,0 UV-I 0 W/m 2,7 C 3,0 C 3,2 km/h (1 Bft) 95,74 %
06.11.2016 00:10 2,9 C 98 % 1000,6 hPa 0,0 l/m 1,0 km/h (0 Bft) S 178 0 min 0,000 mm 0,0 UV-I 0 W/m 2,6 C 2,9 C 3,2 km/h (1 Bft) 100,00 %
06.11.2016 00:12 3,0 C 98 % 1000,7 hPa 0,0 l/m 0,3 km/h (0 Bft) S 178 0 min 0,000 mm 0,0 UV-I 0 W/m 2,7 C 3,0 C 1,6 km/h (1 Bft) 100,00 %
06.11.2016 00:14 3,0 C 98 % 1000,6 hPa 0,0 l/m 0,0 km/h (0 Bft) S 178 0 min 0,000 mm 0,0 UV-I 0 W/m 2,7 C 3,0 C 0,0 km/h (0 Bft) 100,00 %
06.11.2016 00:16 3,0 C 98 % 1000,7 hPa 0,0 l/m 0,3 km/h (0 Bft) S 178 0 min 0,000 mm 0,0 UV-I 0 W/m 2,7 C 3,0 C 1,6 km/h (1 Bft) 100,00 %
06.11.2016 00:18 3,0 C 98 % 1000,7 hPa 0,0 l/m 1,4 km/h (1 Bft) S 178 0 min 0,000 mm 0,0 UV-I 0 W/m 2,7 C 3,0 C 3,2 km/h (1 Bft) 100,00 %
06.11.2016 00:20 3,1 C 98 % 1000,8 hPa 0,0 l/m 1,0 km/h (0 Bft) S 178 0 min 0,000 mm 0,0 UV-I 0 W/m 2,8 C 3,1 C 1,6 km/h (1 Bft) 100,00 %
06.11.2016 00:22 3,1 C 98 % 1000,8 hPa 0,0 l/m 2,4 km/h (1 Bft) S 178 0 min 0,000 mm 0,0 UV-I 0 W/m 2,8 C 3,1 C 3,2 km/h (1 Bft) 100,00 %
06.11.2016 00:24 3,1 C 98 % 1000,9 hPa 0,0 l/m 2,8 km/h (1 Bft) S 180 0 min 0,000 mm 0,0 UV-I 0 W/m 2,8 C 3,1 C 4,8 km/h (1 Bft) 100,00 %
06.11.2016 00:26 3,1 C 98 % 1000,9 hPa 0,0 l/m 4,2 km/h (1 Bft) SW 223 0 min 0,000 mm 0,0 UV-I 0 W/m 2,8 C 3,1 C 6,4 km/h (2 Bft) 100,00 %
06.11.2016 00:28 3,2 C 98 % 1000,9 hPa 0,0 l/m 4,3 km/h (1 Bft) W 264 0 min 0,000 mm 0,0 UV-I 0 W/m 2,9 C 3,2 C 9,7 km/h (2 Bft) 100,00 %
06.11.2016 00:30 3,2 C 98 % 1001,0 hPa 0,0 l/m 4,0 km/h (1 Bft) W 259 0 min 0,000 mm 0,0 UV-I 0 W/m 2,9 C 3,2 C 9,7 km/h (2 Bft) 100,00 %
06.11.2016 00:32 3,2 C 98 % 1001,0 hPa 0,0 l/m 6,2 km/h (2 Bft) W 264 0 min 0,000 mm 0,0 UV-I 0 W/m 2,9 C 3,2 C 9,7 km/h (2 Bft) 100,00 %
06.11.2016 00:34 3,2 C 98 % 1000,9 hPa 0,0 l/m 5,6 km/h (1 Bft) W 260 0 min 0,000 mm 0,0 UV-I 0 W/m 2,9 C 3,2 C 9,7 km/h (2 Bft) 97,87 %
06.11.2016 00:36 3,2 C 98 % 1001,0 hPa 0,0 l/m 5,7 km/h (1 Bft) W-SW 249 0 min 0,000 mm 0,0 UV-I 0 W/m 2,9 C 3,2 C 8,0 km/h (2 Bft) 96,23 %
06.11.2016 00:38 3,2 C 98 % 1001,0 hPa 0,0 l/m 5,9 km/h (2 Bft) W-SW 242 0 min 0,000 mm 0,0 UV-I 0 W/m 2,9 C 3,2 C 8,0 km/h (2 Bft) 100,00 %
06.11.2016 00:40 3,3 C 98 % 1001,1 hPa 0,2 l/m 6,0 km/h (2 Bft) W-SW 244 0 min 0,000 mm 0,0 UV-I 0 W/m 3,0 C 3,3 C 8,0 km/h (2 Bft) 100,00 %
06.11.2016 00:42 3,3 C 98 % 1001,1 hPa 0,0 l/m 4,9 km/h (1 Bft) W-SW 240 0 min 0,000 mm 0,0 UV-I 0 W/m 3,0 C 3,3 C 6,4 km/h (2 Bft) 100,00 %
06.11.2016 00:44 3,3 C 98 % 1001,2 hPa 0,0 l/m 4,1 km/h (1 Bft) W-SW 244 0 min 0,000 mm 0,0 UV-I 0 W/m 3,0 C 3,3 C 6,4 km/h (2 Bft) 97,87 %
06.11.2016 00:46 3,3 C 98 % 1001,1 hPa 0,0 l/m 4,1 km/h (1 Bft) W-SW 246 0 min 0,000 mm 0,0 UV-I 0 W/m 3,0 C 3,3 C 8,0 km/h (2 Bft) 97,87 %
06.11.2016 00:48 3,3 C 98 % 1001,1 hPa 0,0 l/m 3,4 km/h (1 Bft) W-SW 255 0 min 0,000 mm 0,0 UV-I 0 W/m 3,0 C 3,3 C 6,4 km/h (2 Bft) 100,00 %
06.11.2016 00:50 3,3 C 98 % 1001,0 hPa 0,0 l/m 3,7 km/h (1 Bft) W-SW 255 0 min 0,000 mm 0,0 UV-I 0 W/m 3,0 C 3,3 C 6,4 km/h (2 Bft) 100,00 %
06.11.2016 00:52 3,3 C 98 % 1001,0 hPa 0,0 l/m 3,1 km/h (1 Bft) W-SW 255 0 min 0,000 mm 0,0 UV-I 0 W/m 3,0 C 3,3 C 4,8 km/h (1 Bft) 100,00 %
06.11.2016 00:54 3,3 C 98 % 1001,1 hPa 0,2 l/m 3,4 km/h (1 Bft) W-SW 255 0 min 0,000 mm 0,0 UV-I 0 W/m 3,0 C 3,3 C 6,4 km/h (2 Bft) 97,87 %
06.11.2016 00:56 3,4 C 98 % 1001,1 hPa 0,0 l/m 5,4 km/h (1 Bft) SW 232 0 min 0,000 mm 0,0 UV-I 0 W/m 3,1 C 3,4 C 6,4 km/h (2 Bft) 97,44 %
06.11.2016 00:58 3,4 C 98 % 1001,1 hPa 0,0 l/m 4,2 km/h (1 Bft) W-SW 238 0 min 0,000 mm 0,0 UV-I 0 W/m 3,1 C 3,4 C 6,4 km/h (2 Bft) 100,00 %
06.11.2016 01:00 3,4 C 98 % 1001,0 hPa 0,2 l/m 3,7 km/h (1 Bft) W-SW 238 0 min 0,000 mm 0,0 UV-I 0 W/m 3,1 C 3,4 C 6,4 km/h (2 Bft) 97,37 %
06.11.2016 01:01 3,4 C 98 % 1001,0 hPa 0,0 l/m 3,2 km/h (1 Bft) W-SW 238 0 min 0,000 mm 0,0 UV-I 0 W/m 3,1 C 3,4 C 6,4 km/h (2 Bft) 100,00 %
06.11.2016 01:04 3,4 C 98 % 1001,0 hPa 0,0 l/m 3,7 km/h (1 Bft) SW 224 0 min 0,000 mm 0,0 UV-I 0 W/m 3,1 C 3,4 C 6,4 km/h (2 Bft) 100,00 %
06.11.2016 01:06 3,5 C 98 % 1001,1 hPa 0,0 l/m 4,7 km/h (1 Bft) SW 215 0 min 0,000 mm 0,0 UV-I 0 W/m 3,2 C 3,5 C 6,4 km/h (2 Bft) 100,00 %
06.11.2016 01:08 3,5 C 98 % 1001,1 hPa 0,0 l/m 5,5 km/h (1 Bft) S-SW 213 0 min 0,000 mm 0,0 UV-I 0 W/m 3,2 C 3,5 C 8,0 km/h (2 Bft) 100,00 %
06.11.2016 01:10 3,6 C 98 % 1001,0 hPa 0,0 l/m 6,5 km/h (2 Bft) S-SW 202 0 min 0,000 mm 0,0 UV-I 0 W/m 3,3 C 3,5 C 9,7 km/h (2 Bft) 100,00 %
06.11.2016 01:13 3,6 C 98 % 1000,9 hPa 0,2 l/m 4,1 km/h (1 Bft) SW 229 0 min 0,000 mm 0,0 UV-I 0 W/m 3,3 C 3,6 C 6,4 km/h (2 Bft) 100,00 %
06.11.2016 01:14 3,6 C 98 % 1000,9 hPa 0,0 l/m 4,4 km/h (1 Bft) W-SW 239 0 min 0,000 mm 0,0 UV-I 0 W/m 3,3 C 3,6 C 6,4 km/h (2 Bft) 100,00 %
06.11.2016 01:16 3,6 C 98 % 1001,0 hPa 0,0 l/m 4,7 km/h (1 Bft) S-SW 204 0 min 0,000 mm 0,0 UV-I 0 W/m 3,3 C 3,6 C 8,0 km/h (2 Bft) 100,00 %
06.11.2016 01:18 3,6 C 98 % 1000,9 hPa 0,0 l/m 4,8 km/h (1 Bft) SW 222 0 min 0,000 mm 0,0 UV-I 0 W/m 3,3 C 3,6 C 6,4 km/h (2 Bft) 100,00 %
06.11.2016 01:20 3,6 C 98 % 1000,9 hPa 0,0 l/m 4,9 km/h (1 Bft) S-SW 212 0 min 0,000 mm 0,0 UV-I 0 W/m 3,3 C 3,6 C 6,4 km/h (2 Bft) 98,00 %
06.11.2016 01:22 3,6 C 98 % 1000,9 hPa 0,0 l/m 4,5 km/h (1 Bft) S-SW 209 0 min 0,000 mm 0,0 UV-I 0 W/m 3,3 C 3,6 C 6,4 km/h (2 Bft) 95,12 %
06.11.2016 01:24 3,6 C 98 % 1001,0 hPa 0,0 l/m 6,5 km/h (2 Bft) SW 221 0 min 0,000 mm 0,0 UV-I 0 W/m 3,3 C 3,5 C 8,0 km/h (2 Bft) 100,00 %
06.11.2016 01:26 3,6 C 98 % 1001,1 hPa 0,0 l/m 5,8 km/h (2 Bft) S-SW 207 0 min 0,000 mm 0,0 UV-I 0 W/m 3,3 C 3,6 C 8,0 km/h (2 Bft) 100,00 %
06.11.2016 01:28 3,6 C 98 % 1001,1 hPa 0,0 l/m 6,8 km/h (2 Bft) S-SW 211 0 min 0,000 mm 0,0 UV-I 0 W/m 3,3 C 3,2 C 8,0 km/h (2 Bft) 96,43 %
06.11.2016 01:30 3,6 C 98 % 1001,0 hPa 0,2 l/m 4,2 km/h (1 Bft) SW 215 0 min 0,000 mm 0,0 UV-I 0 W/m 3,3 C 3,6 C 8,0 km/h (2 Bft) 97,56 %
06.11.2016 01:32 3,7 C 98 % 1001,0 hPa 0,0 l/m 4,6 km/h (1 Bft) S-SW 207 0 min 0,000 mm 0,0 UV-I 0 W/m 3,4 C 3,7 C 8,0 km/h (2 Bft) 98,00 %
06.11.2016 01:34 3,7 C 98 % 1001,0 hPa 0,0 l/m 4,3 km/h (1 Bft) S-SW 207 0 min 0,000 mm 0,0 UV-I 0 W/m 3,4 C 3,7 C 6,4 km/h (2 Bft) 98,00 %
06.11.2016 01:36 3,7 C 98 % 1001,1 hPa 0,0 l/m 3,8 km/h (1 Bft) S-SW 207 0 min 0,000 mm 0,0 UV-I 0 W/m 3,4 C 3,7 C 6,4 km/h (2 Bft) 97,92 %
06.11.2016 01:38 3,7 C 98 % 1001,2 hPa 0,0 l/m 4,2 km/h (1 Bft) S 190 0 min 0,000 mm 0,0 UV-I 0 W/m 3,4 C 3,7 C 6,4 km/h (2 Bft) 95,74 %
06.11.2016 01:40 3,8 C 98 % 1001,2 hPa 0,0 l/m 4,0 km/h (1 Bft) S 190 0 min 0,000 mm 0,0 UV-I 0 W/m 3,5 C 3,8 C 6,4 km/h (2 Bft) 97,73 %
06.11.2016 01:42 3,8 C 98 % 1001,1 hPa 0,0 l/m 3,4 km/h (1 Bft) S 190 0 min 0,000 mm 0,0 UV-I 0 W/m 3,5 C 3,8 C 6,4 km/h (2 Bft) 97,56 %
06.11.2016 01:44 3,9 C 98 % 1001,1 hPa 0,0 l/m 2,8 km/h (1 Bft) S 190 0 min 0,000 mm 0,0 UV-I 0 W/m 3,6 C 3,9 C 4,8 km/h (1 Bft) 97,87 %
06.11.2016 01:46 3,9 C 98 % 1001,1 hPa 0,0 l/m 3,3 km/h (1 Bft) S 190 0 min 0,000 mm 0,0 UV-I 0 W/m 3,6 C 3,9 C 4,8 km/h (1 Bft) 96,23 %
06.11.2016 01:48 4,0 C 98 % 1001,1 hPa 0,0 l/m 4,9 km/h (1 Bft) S-SW 196 0 min 0,000 mm 0,0 UV-I 0 W/m 3,7 C 4,0 C 6,4 km/h (2 Bft) 98,00 %
06.11.2016 01:50 4,1 C 98 % 1001,1 hPa 0,0 l/m 4,3 km/h (1 Bft) S-SW 196 0 min 0,000 mm 0,0 UV-I 0 W/m 3,8 C 4,1 C 6,4 km/h (2 Bft) 97,37 %
06.11.2016 01:52 4,2 C 98 % 1001,1 hPa 0,0 l/m 4,5 km/h (1 Bft) S-SW 202 0 min 0,000 mm 0,0 UV-I 0 W/m 3,9 C 4,2 C 6,4 km/h (2 Bft) 97,87 %
06.11.2016 01:54 4,2 C 98 % 1001,1 hPa 0,0 l/m 3,3 km/h (1 Bft) S-SW 202 0 min 0,000 mm 0,0 UV-I 0 W/m 3,9 C 4,2 C 4,8 km/h (1 Bft) 98,11 %
06.11.2016 01:56 4,2 C 98 % 1001,1 hPa 0,0 l/m 3,4 km/h (1 Bft) S-SW 202 0 min 0,000 mm 0,0 UV-I 0 W/m 3,9 C 4,2 C 4,8 km/h (1 Bft) 97,56 %
06.11.2016 01:58 4,3 C 98 % 1001,1 hPa 0,0 l/m 2,5 km/h (1 Bft) S-SW 202 0 min 0,000 mm 0,0 UV-I 0 W/m 4,0 C 4,3 C 4,8 km/h (1 Bft) 98,00 %
06.11.2016 02:00 4,3 C 98 % 1001,1 hPa 0,0 l/m 3,0 km/h (1 Bft) S-SW 202 0 min 0,000 mm 0,0 UV-I 0 W/m 4,0 C 4,3 C 4,8 km/h (1 Bft) 98,00 %
06.11.2016 02:02 4,3 C 98 % 1001,1 hPa 0,0 l/m 2,6 km/h (1 Bft) S-SW 202 0 min 0,000 mm 0,0 UV-I 0 W/m 4,0 C 4,3 C 3,2 km/h (1 Bft) 97,56 %
06.11.2016 02:04 4,3 C 98 % 1001,2 hPa 0,0 l/m 1,6 km/h (1 Bft) S-SW 202 0 min 0,000 mm 0,0 UV-I 0 W/m 4,0 C 4,3 C 3,2 km/h (1 Bft) 98,00 %
06.11.2016 02:06 4,4 C 98 % 1001,1 hPa 0,0 l/m 2,5 km/h (1 Bft) S-SW 204 0 min 0,000 mm 0,0 UV-I 0 W/m 4,1 C 4,4 C 4,8 km/h (1 Bft) 100,00 %
06.11.2016 02:08 4,4 C 98 % 1001,1 hPa 0,0 l/m 3,3 km/h (1 Bft) S-SW 204 0 min 0,000 mm 0,0 UV-I 0 W/m 4,1 C 4,4 C 4,8 km/h (1 Bft) 97,56 %
06.11.2016 02:10 4,4 C 98 % 1001,1 hPa 0,0 l/m 2,9 km/h (1 Bft) S-SW 204 0 min 0,000 mm 0,0 UV-I 0 W/m 4,1 C 4,4 C 4,8 km/h (1 Bft) 100,00 %
06.11.2016 02:12 4,4 C 98 % 1001,0 hPa 0,0 l/m 2,6 km/h (1 Bft) S-SW 204 0 min 0,000 mm 0,0 UV-I 0 W/m 4,1 C 4,4 C 4,8 km/h (1 Bft) 100,00 %
06.11.2016 02:14 4,5 C 98 % 1001,0 hPa 0,0 l/m 0,9 km/h (0 Bft) S-SW 204 0 min 0,000 mm 0,0 UV-I 0 W/m 4,2 C 4,5 C 1,6 km/h (1 Bft) 94,44 %
06.11.2016 02:16 4,5 C 98 % 1001,1 hPa 0,0 l/m 0,0 km/h (0 Bft) S-SW 204 0 min 0,000 mm 0,0 UV-I 0 W/m 4,2 C 4,5 C 0,0 km/h (0 Bft) 100,00 %
06.11.2016 02:18 4,6 C 98 % 1001,0 hPa 0,2 l/m 0,7 km/h (0 Bft) S-SW 204 0 min 0,000 mm 0,0 UV-I 0 W/m 4,3 C 4,6 C 3,2 km/h (1 Bft) 100,00 %
06.11.2016 02:20 4,6 C 98 % 1001,0 hPa 0,0 l/m 1,3 km/h (1 Bft) S-SW 204 0 min 0,000 mm 0,0 UV-I 0 W/m 4,3 C 4,6 C 3,2 km/h (1 Bft) 97,87 %
06.11.2016 02:22 4,6 C 98 % 1001,0 hPa 0,0 l/m 0,4 km/h (0 Bft) S-SW 204 0 min 0,000 mm 0,0 UV-I 0 W/m 4,3 C 4,6 C 1,6 km/h (1 Bft) 100,00 %
06.11.2016 02:24 4,6 C 98 % 1000,9 hPa 0,0 l/m 1,0 km/h (0 Bft) S-SW 204 0 min 0,000 mm 0,0 UV-I 0 W/m 4,3 C 4,6 C 3,2 km/h (1 Bft) 100,00 %
06.11.2016 02:26 4,6 C 98 % 1000,9 hPa 0,0 l/m 0,3 km/h (0 Bft) S-SW 204 0 min 0,000 mm 0,0 UV-I 0 W/m 4,3 C 4,6 C 1,6 km/h (1 Bft) 100,00 %
06.11.2016 02:28 4,6 C 98 % 1001,0 hPa 0,0 l/m 0,8 km/h (0 Bft) S-SW 204 0 min 0,000 mm 0,0 UV-I 0 W/m 4,3 C 4,6 C 1,6 km/h (1 Bft) 100,00 %
06.11.2016 02:30 4,6 C 98 % 1000,9 hPa 0,0 l/m 0,5 km/h (0 Bft) S-SW 204 0 min 0,000 mm 0,0 UV-I 0 W/m 4,3 C 4,6 C 3,2 km/h (1 Bft) 100,00 %
06.11.2016 02:32 4,7 C 98 % 1000,9 hPa 0,0 l/m 1,1 km/h (1 Bft) S-SW 204 0 min 0,000 mm 0,0 UV-I 0 W/m 4,4 C 4,7 C 3,2 km/h (1 Bft) 97,87 %
06.11.2016 02:34 4,7 C 98 % 1001,0 hPa 0,2 l/m 1,7 km/h (1 Bft) S-SW 204 0 min 0,000 mm 0,0 UV-I 0 W/m 4,4 C 4,7 C 3,2 km/h (1 Bft) 97,87 %
06.11.2016 02:36 4,7 C 98 % 1000,9 hPa 0,0 l/m 2,5 km/h (1 Bft) S-SW 204 0 min 0,000 mm 0,0 UV-I 0 W/m 4,4 C 4,7 C 3,2 km/h (1 Bft) 100,00 %
06.11.2016 02:38 4,7 C 98 % 1000,8 hPa 0,0 l/m 2,4 km/h (1 Bft) S-SW 204 0 min 0,000 mm 0,0 UV-I 0 W/m 4,4 C 4,7 C 3,2 km/h (1 Bft) 100,00 %
06.11.2016 02:40 4,7 C 98 % 1000,8 hPa 0,0 l/m 1,1 km/h (1 Bft) S-SW 204 0 min 0,000 mm 0,0 UV-I 0 W/m 4,4 C 4,7 C 1,6 km/h (1 Bft) 98,11 %
06.11.2016 02:42 4,6 C 98 % 1000,8 hPa 0,0 l/m 1,1 km/h (1 Bft) S-SW 204 0 min 0,000 mm 0,0 UV-I 0 W/m 4,3 C 4,6 C 3,2 km/h (1 Bft) 97,87 %
06.11.2016 02:44 4,6 C 98 % 1000,7 hPa 0,0 l/m 1,2 km/h (1 Bft) S-SW 204 0 min 0,000 mm 0,0 UV-I 0 W/m 4,3 C 4,6 C 3,2 km/h (1 Bft) 97,87 %
06.11.2016 02:46 4,6 C 98 % 1000,7 hPa 0,2 l/m 1,5 km/h (1 Bft) S-SW 204 0 min 0,000 mm 0,0 UV-I 0 W/m 4,3 C 4,6 C 3,2 km/h (1 Bft) 100,00 %
06.11.2016 02:48 4,6 C 98 % 1000,7 hPa 0,0 l/m 1,3 km/h (1 Bft) S-SW 204 0 min 0,000 mm 0,0 UV-I 0 W/m 4,3 C 4,6 C 3,2 km/h (1 Bft) 100,00 %
06.11.2016 02:50 4,6 C 98 % 1000,7 hPa 0,2 l/m 1,9 km/h (1 Bft) S-SW 204 0 min 0,000 mm 0,0 UV-I 0 W/m 4,3 C 4,6 C 3,2 km/h (1 Bft) 100,00 %
06.11.2016 02:52 4,6 C 98 % 1000,6 hPa 0,0 l/m 2,4 km/h (1 Bft) S-SW 204 0 min 0,000 mm 0,0 UV-I 0 W/m 4,3 C 4,6 C 4,8 km/h (1 Bft) 100,00 %
06.11.2016 02:54 4,6 C 98 % 1000,6 hPa 0,0 l/m 1,7 km/h (1 Bft) S-SW 204 0 min 0,000 mm 0,0 UV-I 0 W/m 4,3 C 4,6 C 3,2 km/h (1 Bft) 100,00 %
06.11.2016 02:56 4,7 C 98 % 1000,6 hPa 0,0 l/m 1,7 km/h (1 Bft) S-SW 204 0 min 0,000 mm 0,0 UV-I 0 W/m 4,4 C 4,7 C 3,2 km/h (1 Bft) 100,00 %
06.11.2016 02:58 4,6 C 98 % 1000,6 hPa 0,0 l/m 2,6 km/h (1 Bft) S-SW 204 0 min 0,000 mm 0,0 UV-I 0 W/m 4,3 C 4,6 C 3,2 km/h (1 Bft) 100,00 %
06.11.2016 03:00 4,7 C 98 % 1000,6 hPa 0,2 l/m 1,7 km/h (1 Bft) S-SW 204 0 min 0,000 mm 0,0 UV-I 0 W/m 4,4 C 4,7 C 3,2 km/h (1 Bft) 97,87 %
06.11.2016 03:02 4,7 C 98 % 1000,6 hPa 0,0 l/m 2,3 km/h (1 Bft) S-SW 204 0 min 0,000 mm 0,0 UV-I 0 W/m 4,4 C 4,7 C 4,8 km/h (1 Bft) 100,00 %
06.11.2016 03:04 4,7 C 98 % 1000,6 hPa 0,0 l/m 2,6 km/h (1 Bft) S-SW 204 0 min 0,000 mm 0,0 UV-I 0 W/m 4,4 C 4,7 C 3,2 km/h (1 Bft) 100,00 %
06.11.2016 03:06 4,7 C 98 % 1000,5 hPa 0,0 l/m 2,1 km/h (1 Bft) S-SW 204 0 min 0,000 mm 0,0 UV-I 0 W/m 4,4 C 4,7 C 3,2 km/h (1 Bft) 100,00 %
06.11.2016 03:08 4,7 C 98 % 1000,5 hPa 0,0 l/m 2,3 km/h (1 Bft) S-SW 204 0 min 0,000 mm 0,0 UV-I 0 W/m 4,4 C 4,7 C 3,2 km/h (1 Bft) 98,00 %
06.11.2016 03:10 4,8 C 98 % 1000,5 hPa 0,0 l/m 2,5 km/h (1 Bft) S-SW 204 0 min 0,000 mm 0,0 UV-I 0 W/m 4,5 C 4,8 C 3,2 km/h (1 Bft) 100,00 %
06.11.2016 03:12 4,8 C 98 % 1000,5 hPa 0,0 l/m 2,6 km/h (1 Bft) S-SW 204 0 min 0,000 mm 0,0 UV-I 0 W/m 4,5 C 4,8 C 3,2 km/h (1 Bft) 97,56 %
06.11.2016 03:14 4,8 C 98 % 1000,6 hPa 0,2 l/m 2,7 km/h (1 Bft) S-SW 204 0 min 0,000 mm 0,0 UV-I 0 W/m 4,5 C 4,8 C 3,2 km/h (1 Bft) 100,00 %
06.11.2016 03:16 4,8 C 98 % 1000,6 hPa 0,0 l/m 2,9 km/h (1 Bft) S-SW 204 0 min 0,000 mm 0,0 UV-I 0 W/m 4,5 C 4,8 C 4,8 km/h (1 Bft) 100,00 %
06.11.2016 03:18 4,8 C 98 % 1000,6 hPa 0,0 l/m 2,8 km/h (1 Bft) S-SW 205 0 min 0,000 mm 0,0 UV-I 0 W/m 4,5 C 4,8 C 4,8 km/h (1 Bft) 100,00 %
06.11.2016 03:20 4,9 C 98 % 1000,5 hPa 0,0 l/m 2,5 km/h (1 Bft) S-SW 205 0 min 0,000 mm 0,0 UV-I 0 W/m 4,6 C 4,9 C 3,2 km/h (1 Bft) 100,00 %
06.11.2016 03:22 4,9 C 98 % 1000,6 hPa 0,0 l/m 1,8 km/h (1 Bft) S-SW 205 0 min 0,000 mm 0,0 UV-I 0 W/m 4,6 C 4,9 C 3,2 km/h (1 Bft) 97,37 %
06.11.2016 03:24 5,0 C 98 % 1000,6 hPa 0,0 l/m 2,9 km/h (1 Bft) S-SW 205 0 min 0,000 mm 0,0 UV-I 0 W/m 4,7 C 5,0 C 3,2 km/h (1 Bft) 100,00 %
06.11.2016 03:26 5,1 C 98 % 1000,6 hPa 0,0 l/m 2,5 km/h (1 Bft) S-SW 205 0 min 0,000 mm 0,0 UV-I 0 W/m 4,8 C 5,1 C 3,2 km/h (1 Bft) 97,37 %
06.11.2016 03:28 5,0 C 98 % 1000,6 hPa 0,0 l/m 2,3 km/h (1 Bft) S-SW 205 0 min 0,000 mm 0,0 UV-I 0 W/m 4,7 C 5,0 C 3,2 km/h (1 Bft) 100,00 %
06.11.2016 03:30 5,0 C 98 % 1000,5 hPa 0,0 l/m 2,3 km/h (1 Bft) S-SW 205 0 min 0,000 mm 0,0 UV-I 0 W/m 4,7 C 5,0 C 3,2 km/h (1 Bft) 100,00 %
06.11.2016 03:32 5,0 C 98 % 1000,6 hPa 0,0 l/m 2,1 km/h (1 Bft) S-SW 205 0 min 0,000 mm 0,0 UV-I 0 W/m 4,7 C 5,0 C 3,2 km/h (1 Bft) 100,00 %
06.11.2016 03:34 5,1 C 98 % 1000,7 hPa 0,0 l/m 0,3 km/h (0 Bft) S-SW 205 0 min 0,000 mm 0,0 UV-I 0 W/m 4,8 C 5,1 C 1,6 km/h (1 Bft) 97,92 %
06.11.2016 03:36 5,1 C 98 % 1000,8 hPa 0,0 l/m 0,0 km/h (0 Bft) S-SW 205 0 min 0,000 mm 0,0 UV-I 0 W/m 4,8 C 5,1 C 0,0 km/h (0 Bft) 96,00 %
06.11.2016 03:38 5,1 C 98 % 1000,7 hPa 0,2 l/m 0,3 km/h (0 Bft) S-SW 205 0 min 0,000 mm 0,0 UV-I 0 W/m 4,8 C 5,1 C 1,6 km/h (1 Bft) 98,00 %
06.11.2016 03:40 5,1 C 98 % 1000,8 hPa 0,0 l/m 0,7 km/h (0 Bft) S-SW 205 0 min 0,000 mm 0,0 UV-I 0 W/m 4,8 C 5,1 C 1,6 km/h (1 Bft) 97,56 %
06.11.2016 03:42 5,0 C 98 % 1000,7 hPa 0,0 l/m 0,8 km/h (0 Bft) S-SW 205 0 min 0,000 mm 0,0 UV-I 0 W/m 4,7 C 5,0 C 1,6 km/h (1 Bft) 98,00 %
06.11.2016 03:44 5,0 C 98 % 1000,7 hPa 0,0 l/m 0,0 km/h (0 Bft) S-SW 205 0 min 0,000 mm 0,0 UV-I 0 W/m 4,7 C 5,0 C 0,0 km/h (0 Bft) 94,00 %
06.11.2016 03:46 5,0 C 98 % 1000,7 hPa 0,0 l/m 0,0 km/h (0 Bft) S-SW 205 0 min 0,000 mm 0,0 UV-I 0 W/m 4,7 C 5,0 C 0,0 km/h (0 Bft) 95,74 %
06.11.2016 03:48 5,0 C 98 % 1000,8 hPa 0,0 l/m 0,0 km/h (0 Bft) S-SW 205 0 min 0,000 mm 0,0 UV-I 0 W/m 4,7 C 5,0 C 0,0 km/h (0 Bft) 97,37 %
06.11.2016 03:50 5,0 C 98 % 1000,8 hPa 0,0 l/m 0,0 km/h (0 Bft) S-SW 205 0 min 0,000 mm 0,0 UV-I 0 W/m 4,7 C 5,0 C 0,0 km/h (0 Bft) 95,74 %
06.11.2016 03:52 4,9 C 98 % 1000,8 hPa 0,0 l/m 0,0 km/h (0 Bft) S-SW 205 0 min 0,000 mm 0,0 UV-I 0 W/m 4,6 C 4,9 C 0,0 km/h (0 Bft) 95,74 %
06.11.2016 03:54 4,9 C 98 % 1000,8 hPa 0,0 l/m 0,0 km/h (0 Bft) S-SW 205 0 min 0,000 mm 0,0 UV-I 0 W/m 4,6 C 4,9 C 0,0 km/h (0 Bft) 98,11 %
06.11.2016 03:56 4,9 C 98 % 1000,8 hPa 0,0 l/m 0,0 km/h (0 Bft) S-SW 205 0 min 0,000 mm 0,0 UV-I 0 W/m 4,6 C 4,9 C 0,0 km/h (0 Bft) 95,74 %
06.11.2016 03:58 4,9 C 98 % 1000,9 hPa 0,0 l/m 0,0 km/h (0 Bft) S-SW 205 0 min 0,000 mm 0,0 UV-I 0 W/m 4,6 C 4,9 C 0,0 km/h (0 Bft) 97,14 %
06.11.2016 04:00 4,9 C 98 % 1000,8 hPa 0,0 l/m 0,0 km/h (0 Bft) S-SW 205 0 min 0,000 mm 0,0 UV-I 0 W/m 4,6 C 4,9 C 0,0 km/h (0 Bft) 98,00 %
06.11.2016 04:04 4,9 C 98 % 1000,9 hPa 0,0 l/m 0,0 km/h (0 Bft) S-SW 205 0 min 0,000 mm 0,0 UV-I 0 W/m 4,6 C 4,9 C 0,0 km/h (0 Bft) 93,94 %
06.11.2016 04:06 4,9 C 98 % 1000,9 hPa 0,0 l/m 0,0 km/h (0 Bft) S-SW 205 0 min 0,000 mm 0,0 UV-I 0 W/m 4,6 C 4,9 C 0,0 km/h (0 Bft) 97,37 %
06.11.2016 04:08 4,9 C 98 % 1000,9 hPa 0,0 l/m 0,0 km/h (0 Bft) S-SW 205 0 min 0,000 mm 0,0 UV-I 0 W/m 4,6 C 4,9 C 0,0 km/h (0 Bft) 98,00 %
06.11.2016 04:10 4,9 C 98 % 1001,0 hPa 0,2 l/m 0,0 km/h (0 Bft) S-SW 205 0 min 0,000 mm 0,0 UV-I 0 W/m 4,6 C 4,9 C 0,0 km/h (0 Bft) 97,44 %
06.11.2016 04:12 4,8 C 98 % 1001,0 hPa 0,0 l/m 0,5 km/h (0 Bft) S-SW 205 0 min 0,000 mm 0,0 UV-I 0 W/m 4,5 C 4,8 C 1,6 km/h (1 Bft) 100,00 %
06.11.2016 04:14 4,8 C 98 % 1001,0 hPa 0,0 l/m 0,6 km/h (0 Bft) S-SW 205 0 min 0,000 mm 0,0 UV-I 0 W/m 4,5 C 4,8 C 1,6 km/h (1 Bft) 100,00 %
06.11.2016 04:16 4,9 C 98 % 1000,9 hPa 0,0 l/m 0,0 km/h (0 Bft) S-SW 205 0 min 0,000 mm 0,0 UV-I 0 W/m 4,6 C 4,9 C 0,0 km/h (0 Bft) 100,00 %
06.11.2016 04:18 4,9 C 98 % 1000,9 hPa 0,0 l/m 0,0 km/h (0 Bft) S-SW 205 0 min 0,000 mm 0,0 UV-I 0 W/m 4,6 C 4,9 C 0,0 km/h (0 Bft) 97,87 %
06.11.2016 04:20 4,9 C 98 % 1000,9 hPa 0,0 l/m 0,0 km/h (0 Bft) S-SW 205 0 min 0,000 mm 0,0 UV-I 0 W/m 4,6 C 4,9 C 0,0 km/h (0 Bft) 95,74 %
06.11.2016 04:22 4,9 C 98 % 1000,9 hPa 0,0 l/m 0,0 km/h (0 Bft) S-SW 205 0 min 0,000 mm 0,0 UV-I 0 W/m 4,6 C 4,9 C 0,0 km/h (0 Bft) 100,00 %
06.11.2016 04:24 4,9 C 98 % 1000,9 hPa 0,0 l/m 0,0 km/h (0 Bft) S-SW 205 0 min 0,000 mm 0,0 UV-I 0 W/m 4,6 C 4,9 C 0,0 km/h (0 Bft) 100,00 %
06.11.2016 04:26 4,9 C 98 % 1000,9 hPa 0,0 l/m 0,0 km/h (0 Bft) S-SW 205 0 min 0,000 mm 0,0 UV-I 0 W/m 4,6 C 4,9 C 0,0 km/h (0 Bft) 100,00 %
06.11.2016 04:28 4,9 C 98 % 1000,9 hPa 0,0 l/m 0,0 km/h (0 Bft) S-SW 205 0 min 0,000 mm 0,0 UV-I 0 W/m 4,6 C 4,9 C 0,0 km/h (0 Bft) 100,00 %
06.11.2016 04:30 4,9 C 98 % 1000,9 hPa 0,0 l/m 0,0 km/h (0 Bft) S-SW 205 0 min 0,000 mm 0,0 UV-I 0 W/m 4,6 C 4,9 C 0,0 km/h (0 Bft) 100,00 %
06.11.2016 04:32 4,9 C 98 % 1000,9 hPa 0,0 l/m 0,3 km/h (0 Bft) S-SW 205 0 min 0,000 mm 0,0 UV-I 0 W/m 4,6 C 4,9 C 1,6 km/h (1 Bft) 100,00 %
06.11.2016 04:34 4,9 C 98 % 1000,9 hPa 0,0 l/m 0,6 km/h (0 Bft) S-SW 205 0 min 0,000 mm 0,0 UV-I 0 W/m 4,6 C 4,9 C 3,2 km/h (1 Bft) 100,00 %
06.11.2016 04:36 4,9 C 98 % 1000,9 hPa 0,0 l/m 0,0 km/h (0 Bft) S-SW 205 0 min 0,000 mm 0,0 UV-I 0 W/m 4,6 C 4,9 C 1,6 km/h (1 Bft) 100,00 %
06.11.2016 04:38 4,9 C 98 % 1000,9 hPa 0,0 l/m 0,0 km/h (0 Bft) S-SW 205 0 min 0,000 mm 0,0 UV-I 0 W/m 4,6 C 4,9 C 0,0 km/h (0 Bft) 98,00 %
06.11.2016 04:40 4,8 C 98 % 1000,9 hPa 0,0 l/m 0,0 km/h (0 Bft) S-SW 205 0 min 0,000 mm 0,0 UV-I 0 W/m 4,5 C 4,8 C 0,0 km/h (0 Bft) 100,00 %
06.11.2016 04:42 4,8 C 98 % 1000,8 hPa 0,2 l/m 0,0 km/h (0 Bft) S-SW 205 0 min 0,000 mm 0,0 UV-I 0 W/m 4,5 C 4,8 C 0,0 km/h (0 Bft) 100,00 %
06.11.2016 04:44 4,8 C 98 % 1000,9 hPa 0,0 l/m 0,0 km/h (0 Bft) S-SW 205 0 min 0,000 mm 0,0 UV-I 0 W/m 4,5 C 4,8 C 0,0 km/h (0 Bft) 100,00 %
06.11.2016 04:46 4,8 C 98 % 1000,8 hPa 0,0 l/m 1,2 km/h (1 Bft) S-SW 205 0 min 0,000 mm 0,0 UV-I 0 W/m 4,5 C 4,8 C 3,2 km/h (1 Bft) 100,00 %
06.11.2016 04:48 4,8 C 98 % 1000,8 hPa 0,0 l/m 0,1 km/h (0 Bft) S-SW 205 0 min 0,000 mm 0,0 UV-I 0 W/m 4,5 C 4,8 C 1,6 km/h (1 Bft) 100,00 %
06.11.2016 04:50 4,8 C 98 % 1000,8 hPa 0,0 l/m 0,3 km/h (0 Bft) S-SW 205 0 min 0,000 mm 0,0 UV-I 0 W/m 4,5 C 4,8 C 1,6 km/h (1 Bft) 100,00 %
06.11.2016 04:52 4,8 C 98 % 1000,7 hPa 0,0 l/m 0,1 km/h (0 Bft) S-SW 205 0 min 0,000 mm 0,0 UV-I 0 W/m 4,5 C 4,8 C 1,6 km/h (1 Bft) 98,00 %
06.11.2016 04:54 4,9 C 99 % 1000,7 hPa 0,0 l/m 0,7 km/h (0 Bft) S-SW 205 0 min 0,000 mm 0,0 UV-I 0 W/m 4,8 C 4,9 C 3,2 km/h (1 Bft) 100,00 %
06.11.2016 04:56 4,8 C 98 % 1000,7 hPa 0,2 l/m 0,3 km/h (0 Bft) S-SW 205 0 min 0,000 mm 0,0 UV-I 0 W/m 4,5 C 4,8 C 1,6 km/h (1 Bft) 100,00 %
06.11.2016 04:58 4,8 C 98 % 1000,6 hPa 0,0 l/m 0,2 km/h (0 Bft) S-SW 205 0 min 0,000 mm 0,0 UV-I 0 W/m 4,5 C 4,8 C 1,6 km/h (1 Bft) 100,00 %
06.11.2016 05:00 4,8 C 98 % 1000,7 hPa 0,0 l/m 0,0 km/h (0 Bft) S-SW 205 0 min 0,000 mm 0,0 UV-I 0 W/m 4,5 C 4,8 C 0,0 km/h (0 Bft) 100,00 %
06.11.2016 05:02 4,8 C 98 % 1000,6 hPa 0,0 l/m 0,0 km/h (0 Bft) S-SW 205 0 min 0,000 mm 0,0 UV-I 0 W/m 4,5 C 4,8 C 0,0 km/h (0 Bft) 97,87 %
06.11.2016 05:04 4,8 C 98 % 1000,5 hPa 0,0 l/m 0,0 km/h (0 Bft) S-SW 205 0 min 0,000 mm 0,0 UV-I 0 W/m 4,5 C 4,8 C 0,0 km/h (0 Bft) 100,00 %
06.11.2016 05:06 4,8 C 98 % 1000,5 hPa 0,0 l/m 0,0 km/h (0 Bft) S-SW 205 0 min 0,000 mm 0,0 UV-I 0 W/m 4,5 C 4,8 C 1,6 km/h (1 Bft) 100,00 %
06.11.2016 05:08 4,8 C 98 % 1000,5 hPa 0,0 l/m 0,4 km/h (0 Bft) S-SW 205 0 min 0,000 mm 0,0 UV-I 0 W/m 4,5 C 4,8 C 3,2 km/h (1 Bft) 100,00 %
06.11.2016 05:10 4,9 C 99 % 1000,6 hPa 0,0 l/m 0,0 km/h (0 Bft) S-SW 205 0 min 0,000 mm 0,0 UV-I 0 W/m 4,8 C 4,9 C 0,0 km/h (0 Bft) 98,00 %
06.11.2016 05:12 4,9 C 99 % 1000,6 hPa 0,0 l/m 0,0 km/h (0 Bft) S-SW 205 0 min 0,000 mm 0,0 UV-I 0 W/m 4,8 C 4,9 C 0,0 km/h (0 Bft) 100,00 %
06.11.2016 05:14 4,9 C 99 % 1000,6 hPa 0,0 l/m 0,3 km/h (0 Bft) S-SW 205 0 min 0,000 mm 0,0 UV-I 0 W/m 4,8 C 4,9 C 1,6 km/h (1 Bft) 100,00 %
06.11.2016 05:16 5,1 C 99 % 1000,5 hPa 0,0 l/m 0,0 km/h (0 Bft) S-SW 205 0 min 0,000 mm 0,0 UV-I 0 W/m 5,0 C 5,1 C 0,0 km/h (0 Bft) 100,00 %
06.11.2016 05:18 5,1 C 99 % 1000,5 hPa 0,0 l/m 0,0 km/h (0 Bft) S-SW 205 0 min 0,000 mm 0,0 UV-I 0 W/m 5,0 C 5,1 C 0,0 km/h (0 Bft) 100,00 %
06.11.2016 05:20 5,1 C 99 % 1000,6 hPa 0,0 l/m 0,0 km/h (0 Bft) S-SW 205 0 min 0,000 mm 0,0 UV-I 0 W/m 5,0 C 5,1 C 0,0 km/h (0 Bft) 100,00 %
06.11.2016 05:22 5,1 C 98 % 1000,5 hPa 0,0 l/m 0,1 km/h (0 Bft) S-SW 205 0 min 0,000 mm 0,0 UV-I 0 W/m 4,8 C 5,1 C 1,6 km/h (1 Bft) 96,23 %
06.11.2016 05:24 5,1 C 98 % 1000,5 hPa 0,0 l/m 0,1 km/h (0 Bft) S-SW 205 0 min 0,000 mm 0,0 UV-I 0 W/m 4,8 C 5,1 C 1,6 km/h (1 Bft) 100,00 %
06.11.2016 05:26 5,1 C 98 % 1000,6 hPa 0,0 l/m 0,9 km/h (0 Bft) S-SW 205 0 min 0,000 mm 0,0 UV-I 0 W/m 4,8 C 5,1 C 3,2 km/h (1 Bft) 100,00 %
06.11.2016 05:28 5,1 C 98 % 1000,6 hPa 0,2 l/m 0,0 km/h (0 Bft) S-SW 205 0 min 0,000 mm 0,0 UV-I 0 W/m 4,8 C 5,1 C 1,6 km/h (1 Bft) 100,00 %
06.11.2016 05:30 5,2 C 98 % 1000,6 hPa 0,0 l/m 0,0 km/h (0 Bft) S-SW 205 0 min 0,000 mm 0,0 UV-I 0 W/m 4,9 C 5,2 C 0,0 km/h (0 Bft) 97,87 %
06.11.2016 05:32 5,2 C 98 % 1000,6 hPa 0,0 l/m 0,0 km/h (0 Bft) S-SW 205 0 min 0,000 mm 0,0 UV-I 0 W/m 4,9 C 5,2 C 0,0 km/h (0 Bft) 100,00 %
06.11.2016 05:34 5,2 C 98 % 1000,6 hPa 0,0 l/m 0,0 km/h (0 Bft) S-SW 205 0 min 0,000 mm 0,0 UV-I 0 W/m 4,9 C 5,2 C 0,0 km/h (0 Bft) 100,00 %
06.11.2016 05:36 5,2 C 98 % 1000,7 hPa 0,0 l/m 0,0 km/h (0 Bft) S-SW 205 0 min 0,000 mm 0,0 UV-I 0 W/m 4,9 C 5,2 C 0,0 km/h (0 Bft) 100,00 %
06.11.2016 05:38 5,2 C 98 % 1000,7 hPa 0,0 l/m 0,2 km/h (0 Bft) S-SW 205 0 min 0,000 mm 0,0 UV-I 0 W/m 4,9 C 5,2 C 1,6 km/h (1 Bft) 100,00 %
06.11.2016 05:40 5,2 C 99 % 1000,7 hPa 0,0 l/m 0,0 km/h (0 Bft) S-SW 205 0 min 0,000 mm 0,0 UV-I 0 W/m 5,1 C 5,2 C 1,6 km/h (1 Bft) 95,74 %
06.11.2016 05:42 5,2 C 98 % 1000,6 hPa 0,0 l/m 0,0 km/h (0 Bft) S-SW 205 0 min 0,000 mm 0,0 UV-I 0 W/m 4,9 C 5,2 C 0,0 km/h (0 Bft) 98,00 %
06.11.2016 05:44 5,2 C 98 % 1000,5 hPa 0,0 l/m 0,1 km/h (0 Bft) S-SW 205 0 min 0,000 mm 0,0 UV-I 0 W/m 4,9 C 5,2 C 1,6 km/h (1 Bft) 97,87 %
06.11.2016 05:46 5,2 C 98 % 1000,4 hPa 0,0 l/m 0,1 km/h (0 Bft) S-SW 205 0 min 0,000 mm 0,0 UV-I 0 W/m 4,9 C 5,2 C 1,6 km/h (1 Bft) 95,74 %
06.11.2016 05:48 5,3 C 99 % 1000,5 hPa 0,0 l/m 0,0 km/h (0 Bft) S-SW 205 0 min 0,000 mm 0,0 UV-I 0 W/m 5,2 C 5,3 C 0,0 km/h (0 Bft) 100,00 %
06.11.2016 05:50 5,3 C 99 % 1000,4 hPa 0,0 l/m 0,0 km/h (0 Bft) S-SW 205 0 min 0,000 mm 0,0 UV-I 0 W/m 5,2 C 5,3 C 0,0 km/h (0 Bft) 96,23 %
06.11.2016 05:52 5,3 C 99 % 1000,4 hPa 0,2 l/m 0,0 km/h (0 Bft) S-SW 205 0 min 0,000 mm 0,0 UV-I 0 W/m 5,2 C 5,3 C 0,0 km/h (0 Bft) 98,00 %
06.11.2016 05:54 5,2 C 99 % 1000,4 hPa 0,0 l/m 1,1 km/h (1 Bft) S-SW 205 0 min 0,000 mm 0,0 UV-I 0 W/m 5,1 C 5,2 C 3,2 km/h (1 Bft) 97,87 %
06.11.2016 05:56 5,2 C 99 % 1000,4 hPa 0,0 l/m 0,4 km/h (0 Bft) S-SW 205 0 min 0,000 mm 0,0 UV-I 0 W/m 5,1 C 5,2 C 1,6 km/h (1 Bft) 97,37 %
06.11.2016 05:58 5,2 C 99 % 1000,4 hPa 0,0 l/m 0,0 km/h (0 Bft) S-SW 205 0 min 0,000 mm 0,0 UV-I 0 W/m 5,1 C 5,2 C 0,0 km/h (0 Bft) 97,87 %
06.11.2016 06:00 5,2 C 99 % 1000,4 hPa 0,0 l/m 0,0 km/h (0 Bft) S-SW 205 0 min 0,000 mm 0,0 UV-I 0 W/m 5,1 C 5,2 C 0,0 km/h (0 Bft) 98,00 %
06.11.2016 06:02 5,2 C 98 % 1000,4 hPa 0,0 l/m 0,2 km/h (0 Bft) S-SW 205 0 min 0,000 mm 0,0 UV-I 0 W/m 4,9 C 5,2 C 1,6 km/h (1 Bft) 95,74 %
06.11.2016 06:04 5,2 C 98 % 1000,4 hPa 0,0 l/m 0,8 km/h (0 Bft) S-SW 205 0 min 0,000 mm 0,0 UV-I 0 W/m 4,9 C 5,2 C 1,6 km/h (1 Bft) 96,23 %
06.11.2016 06:06 5,2 C 98 % 1000,5 hPa 0,0 l/m 1,2 km/h (1 Bft) S-SW 205 0 min 0,000 mm 0,0 UV-I 0 W/m 4,9 C 5,2 C 1,6 km/h (1 Bft) 100,00 %
06.11.2016 06:08 5,2 C 98 % 1000,3 hPa 0,0 l/m 0,2 km/h (0 Bft) S-SW 205 0 min 0,000 mm 0,0 UV-I 0 W/m 4,9 C 5,2 C 1,6 km/h (1 Bft) 97,22 %
06.11.2016 06:10 5,2 C 98 % 1000,1 hPa 0,0 l/m 0,0 km/h (0 Bft) S-SW 205 0 min 0,000 mm 0,0 UV-I 0 W/m 4,9 C 5,2 C 0,0 km/h (0 Bft) 97,01 %
06.11.2016 06:12 5,2 C 98 % 1000,1 hPa 0,0 l/m 0,0 km/h (0 Bft) S-SW 205 0 min 0,000 mm 0,0 UV-I 0 W/m 4,9 C 5,2 C 0,0 km/h (0 Bft) 95,74 %
06.11.2016 06:14 5,2 C 98 % 1000,2 hPa 0,0 l/m 1,2 km/h (1 Bft) S-SW 205 0 min 0,000 mm 0,0 UV-I 0 W/m 4,9 C 5,2 C 3,2 km/h (1 Bft) 97,37 %
06.11.2016 06:16 5,2 C 98 % 1000,3 hPa 0,0 l/m 2,5 km/h (1 Bft) S-SW 205 0 min 0,000 mm 0,0 UV-I 0 W/m 4,9 C 5,2 C 3,2 km/h (1 Bft) 98,00 %
06.11.2016 06:18 5,1 C 98 % 1000,3 hPa 0,0 l/m 2,1 km/h (1 Bft) S-SW 205 0 min 0,000 mm 0,0 UV-I 0 W/m 4,8 C 5,1 C 3,2 km/h (1 Bft) 100,00 %
06.11.2016 06:20 5,1 C 98 % 1000,3 hPa 0,0 l/m 2,4 km/h (1 Bft) S-SW 205 0 min 0,000 mm 0,0 UV-I 0 W/m 4,8 C 5,1 C 3,2 km/h (1 Bft) 100,00 %
06.11.2016 06:22 5,2 C 98 % 1000,3 hPa 0,0 l/m 4,0 km/h (1 Bft) W-SW 244 0 min 0,000 mm 0,0 UV-I 0 W/m 4,9 C 5,2 C 6,4 km/h (2 Bft) 97,37 %
06.11.2016 06:24 5,2 C 99 % 1000,3 hPa 0,0 l/m 4,7 km/h (1 Bft) W-SW 244 0 min 0,000 mm 0,0 UV-I 0 W/m 5,1 C 5,2 C 8,0 km/h (2 Bft) 98,00 %
06.11.2016 06:26 5,3 C 99 % 1000,3 hPa 0,0 l/m 5,3 km/h (1 Bft) W-SW 253 0 min 0,000 mm 0,0 UV-I 0 W/m 5,2 C 5,3 C 6,4 km/h (2 Bft) 98,11 %
06.11.2016 06:28 5,4 C 99 % 1000,3 hPa 0,0 l/m 3,3 km/h (1 Bft) W-SW 253 0 min 0,000 mm 0,0 UV-I 0 W/m 5,3 C 5,4 C 4,8 km/h (1 Bft) 97,87 %
06.11.2016 06:30 5,4 C 99 % 1000,3 hPa 0,0 l/m 3,8 km/h (1 Bft) W-NW 284 0 min 0,000 mm 0,0 UV-I 0 W/m 5,3 C 5,4 C 9,7 km/h (2 Bft) 100,00 %
06.11.2016 06:32 5,4 C 99 % 1000,3 hPa 0,0 l/m 2,7 km/h (1 Bft) W-NW 284 0 min 0,000 mm 0,0 UV-I 0 W/m 5,3 C 5,4 C 4,8 km/h (1 Bft) 100,00 %
06.11.2016 06:34 5,4 C 99 % 1000,3 hPa 0,0 l/m 3,4 km/h (1 Bft) W-NW 284 0 min 0,000 mm 0,0 UV-I 0 W/m 5,3 C 5,4 C 4,8 km/h (1 Bft) 96,00 %
06.11.2016 06:36 5,4 C 99 % 1000,3 hPa 0,2 l/m 2,7 km/h (1 Bft) W-NW 284 0 min 0,000 mm 0,0 UV-I 0 W/m 5,3 C 5,4 C 4,8 km/h (1 Bft) 100,00 %
06.11.2016 06:38 5,4 C 99 % 1000,3 hPa 0,0 l/m 1,9 km/h (1 Bft) W-NW 284 0 min 0,000 mm 0,0 UV-I 0 W/m 5,3 C 5,4 C 3,2 km/h (1 Bft) 100,00 %
06.11.2016 06:40 5,4 C 99 % 1000,3 hPa 0,0 l/m 3,0 km/h (1 Bft) W 269 0 min 0,000 mm 0,0 UV-I 0 W/m 5,3 C 5,4 C 4,8 km/h (1 Bft) 100,00 %
06.11.2016 06:42 5,4 C 99 % 1000,3 hPa 0,0 l/m 3,9 km/h (1 Bft) W 265 0 min 0,000 mm 0,0 UV-I 0 W/m 5,3 C 5,4 C 6,4 km/h (2 Bft) 97,87 %
06.11.2016 06:44 5,5 C 99 % 1000,3 hPa 0,0 l/m 2,1 km/h (1 Bft) W 265 0 min 0,000 mm 0,0 UV-I 0 W/m 5,4 C 5,5 C 3,2 km/h (1 Bft) 100,00 %
06.11.2016 06:46 5,5 C 99 % 1000,2 hPa 0,0 l/m 2,2 km/h (1 Bft) W 265 0 min 0,000 mm 0,0 UV-I 0 W/m 5,4 C 5,5 C 3,2 km/h (1 Bft) 100,00 %
06.11.2016 06:48 5,5 C 99 % 1000,3 hPa 0,0 l/m 2,3 km/h (1 Bft) W 261 0 min 0,000 mm 0,0 UV-I 0 W/m 5,4 C 5,5 C 3,2 km/h (1 Bft) 100,00 %
06.11.2016 06:50 5,5 C 99 % 1000,2 hPa 0,0 l/m 1,9 km/h (1 Bft) W 261 0 min 0,000 mm 0,0 UV-I 0 W/m 5,4 C 5,5 C 3,2 km/h (1 Bft) 100,00 %
06.11.2016 06:52 5,5 C 99 % 1000,3 hPa 0,0 l/m 3,9 km/h (1 Bft) SW 216 0 min 0,000 mm 0,0 UV-I 0 W/m 5,4 C 5,5 C 8,0 km/h (2 Bft) 100,00 %
06.11.2016 06:54 5,5 C 99 % 1000,3 hPa 0,0 l/m 3,6 km/h (1 Bft) SW 223 0 min 0,000 mm 0,0 UV-I 0 W/m 5,4 C 5,5 C 6,4 km/h (2 Bft) 100,00 %
06.11.2016 06:56 5,6 C 99 % 1000,3 hPa 0,0 l/m 2,6 km/h (1 Bft) SW 223 0 min 0,000 mm 0,0 UV-I 0 W/m 5,5 C 5,6 C 4,8 km/h (1 Bft) 98,11 %
06.11.2016 06:58 5,6 C 99 % 1000,3 hPa 0,0 l/m 2,9 km/h (1 Bft) SW 223 0 min 0,000 mm 0,0 UV-I 0 W/m 5,5 C 5,6 C 4,8 km/h (1 Bft) 100,00 %
06.11.2016 07:00 5,6 C 99 % 1000,3 hPa 0,0 l/m 1,8 km/h (1 Bft) SW 223 0 min 0,000 mm 0,0 UV-I 4 W/m 5,5 C 5,6 C 3,2 km/h (1 Bft) 100,00 %
06.11.2016 07:02 5,6 C 99 % 1000,3 hPa 0,0 l/m 1,7 km/h (1 Bft) SW 223 0 min 0,000 mm 0,0 UV-I 5 W/m 5,5 C 5,6 C 3,2 km/h (1 Bft) 100,00 %
06.11.2016 07:04 5,6 C 99 % 1000,3 hPa 0,0 l/m 2,4 km/h (1 Bft) SW 223 0 min 0,000 mm 0,0 UV-I 5 W/m 5,5 C 5,6 C 4,8 km/h (1 Bft) 100,00 %
06.11.2016 07:06 5,6 C 99 % 1000,2 hPa 0,0 l/m 1,8 km/h (1 Bft) SW 223 0 min 0,000 mm 0,0 UV-I 5 W/m 5,5 C 5,6 C 3,2 km/h (1 Bft) 96,15 %
06.11.2016 07:08 5,6 C 99 % 1000,2 hPa 0,0 l/m 0,4 km/h (0 Bft) SW 223 0 min 0,000 mm 0,0 UV-I 5 W/m 5,5 C 5,6 C 1,6 km/h (1 Bft) 100,00 %
06.11.2016 07:10 5,6 C 99 % 1000,2 hPa 0,0 l/m 0,3 km/h (0 Bft) SW 223 0 min 0,000 mm 0,0 UV-I 5 W/m 5,5 C 5,6 C 1,6 km/h (1 Bft) 100,00 %
06.11.2016 07:12 5,6 C 99 % 1000,2 hPa 0,0 l/m 0,1 km/h (0 Bft) SW 223 0 min 0,000 mm 0,0 UV-I 5 W/m 5,5 C 5,6 C 1,6 km/h (1 Bft) 100,00 %
06.11.2016 07:14 5,6 C 99 % 1000,1 hPa 0,2 l/m 0,9 km/h (0 Bft) SW 223 0 min 0,000 mm 0,0 UV-I 5 W/m 5,5 C 5,6 C 3,2 km/h (1 Bft) 100,00 %
06.11.2016 07:16 5,6 C 99 % 1000,1 hPa 0,0 l/m 2,0 km/h (1 Bft) SW 223 0 min 0,000 mm 0,0 UV-I 5 W/m 5,5 C 5,6 C 3,2 km/h (1 Bft) 98,11 %
06.11.2016 07:18 5,6 C 99 % 1000,1 hPa 0,0 l/m 0,7 km/h (0 Bft) SW 223 0 min 0,000 mm 0,0 UV-I 5 W/m 5,5 C 5,6 C 3,2 km/h (1 Bft) 100,00 %
06.11.2016 07:20 5,6 C 99 % 1000,1 hPa 0,0 l/m 0,5 km/h (0 Bft) SW 223 0 min 0,000 mm 0,0 UV-I 5 W/m 5,5 C 5,6 C 1,6 km/h (1 Bft) 100,00 %
06.11.2016 07:22 5,6 C 99 % 1000,1 hPa 0,0 l/m 0,5 km/h (0 Bft) SW 223 0 min 0,000 mm 0,0 UV-I 7 W/m 5,5 C 5,6 C 1,6 km/h (1 Bft) 100,00 %
06.11.2016 07:24 5,6 C 99 % 1000,1 hPa 0,0 l/m 0,2 km/h (0 Bft) SW 223 0 min 0,000 mm 0,0 UV-I 8 W/m 5,5 C 5,6 C 1,6 km/h (1 Bft) 100,00 %
06.11.2016 07:26 5,6 C 99 % 1000,1 hPa 0,0 l/m 0,0 km/h (0 Bft) SW 223 0 min 0,000 mm 0,0 UV-I 11 W/m 5,5 C 5,6 C 0,0 km/h (0 Bft) 98,00 %
06.11.2016 07:28 5,6 C 99 % 1000,1 hPa 0,0 l/m 0,0 km/h (0 Bft) SW 223 0 min 0,000 mm 0,0 UV-I 11 W/m 5,5 C 5,6 C 1,6 km/h (1 Bft) 100,00 %
06.11.2016 07:30 5,6 C 99 % 1000,1 hPa 0,0 l/m 0,0 km/h (0 Bft) SW 223 0 min 0,000 mm 0,0 UV-I 12 W/m 5,5 C 5,6 C 0,0 km/h (0 Bft) 100,00 %
06.11.2016 07:32 5,6 C 99 % 1000,2 hPa 0,0 l/m 0,1 km/h (0 Bft) SW 223 0 min 0,000 mm 0,0 UV-I 12 W/m 5,5 C 5,6 C 1,6 km/h (1 Bft) 100,00 %
06.11.2016 07:34 5,6 C 99 % 1000,2 hPa 0,0 l/m 1,1 km/h (1 Bft) SW 223 0 min 0,000 mm 0,0 UV-I 14 W/m 5,5 C 5,6 C 3,2 km/h (1 Bft) 97,37 %
06.11.2016 07:36 5,6 C 99 % 1000,4 hPa 0,0 l/m 2,3 km/h (1 Bft) SW 223 0 min 0,000 mm 0,0 UV-I 16 W/m 5,5 C 5,6 C 3,2 km/h (1 Bft) 98,31 %
06.11.2016 07:38 5,6 C 99 % 1000,5 hPa 0,0 l/m 2,8 km/h (1 Bft) SW 223 0 min 0,000 mm 0,0 UV-I 17 W/m 5,5 C 5,6 C 4,8 km/h (1 Bft) 97,14 %
06.11.2016 07:40 5,6 C 99 % 1000,4 hPa 0,0 l/m 2,0 km/h (1 Bft) SW 223 0 min 0,000 mm 0,0 UV-I 18 W/m 5,5 C 5,6 C 3,2 km/h (1 Bft) 100,00 %
06.11.2016 07:42 5,6 C 99 % 1000,4 hPa 0,0 l/m 1,1 km/h (1 Bft) SW 223 0 min 0,000 mm 0,0 UV-I 19 W/m 5,5 C 5,6 C 3,2 km/h (1 Bft) 100,00 %
06.11.2016 07:44 5,6 C 99 % 1000,5 hPa 0,0 l/m 2,0 km/h (1 Bft) SW 223 0 min 0,000 mm 0,0 UV-I 22 W/m 5,5 C 5,6 C 3,2 km/h (1 Bft) 100,00 %
06.11.2016 07:46 5,6 C 99 % 1000,5 hPa 0,0 l/m 1,9 km/h (1 Bft) SW 223 0 min 0,000 mm 0,0 UV-I 28 W/m 5,5 C 5,6 C 3,2 km/h (1 Bft) 100,00 %
06.11.2016 07:48 5,6 C 99 % 1000,5 hPa 0,0 l/m 0,7 km/h (0 Bft) SW 223 0 min 0,000 mm 0,0 UV-I 32 W/m 5,5 C 5,6 C 3,2 km/h (1 Bft) 97,56 %
06.11.2016 07:50 5,7 C 99 % 1000,4 hPa 0,0 l/m 0,1 km/h (0 Bft) SW 223 0 min 0,000 mm 0,0 UV-I 30 W/m 5,6 C 5,7 C 1,6 km/h (1 Bft) 96,00 %
06.11.2016 07:52 5,7 C 99 % 1000,4 hPa 0,0 l/m 0,0 km/h (0 Bft) SW 223 0 min 0,000 mm 0,0 UV-I 32 W/m 5,6 C 5,7 C 1,6 km/h (1 Bft) 97,87 %
06.11.2016 07:54 5,7 C 99 % 1000,4 hPa 0,0 l/m 0,1 km/h (0 Bft) SW 223 0 min 0,000 mm 0,0 UV-I 34 W/m 5,6 C 5,7 C 1,6 km/h (1 Bft) 97,56 %
06.11.2016 07:56 5,7 C 99 % 1000,4 hPa 0,0 l/m 0,6 km/h (0 Bft) SW 223 0 min 0,000 mm 0,0 UV-I 33 W/m 5,6 C 5,7 C 1,6 km/h (1 Bft) 97,87 %
06.11.2016 07:58 5,7 C 99 % 1000,4 hPa 0,0 l/m 1,5 km/h (1 Bft) SW 223 0 min 0,000 mm 0,0 UV-I 28 W/m 5,6 C 5,7 C 3,2 km/h (1 Bft) 95,74 %
06.11.2016 08:00 5,7 C 99 % 1000,4 hPa 0,0 l/m 1,3 km/h (1 Bft) SW 223 0 min 0,000 mm 0,0 UV-I 29 W/m 5,6 C 5,7 C 1,6 km/h (1 Bft) 98,00 %
06.11.2016 08:02 5,8 C 99 % 1000,5 hPa 0,0 l/m 1,2 km/h (1 Bft) SW 223 0 min 0,000 mm 0,0 UV-I 41 W/m 5,7 C 5,8 C 3,2 km/h (1 Bft) 95,74 %
06.11.2016 08:04 5,8 C 99 % 1000,5 hPa 0,2 l/m 1,2 km/h (1 Bft) SW 223 0 min 0,000 mm 0,0 UV-I 49 W/m 5,7 C 5,8 C 3,2 km/h (1 Bft) 97,44 %
06.11.2016 08:06 5,8 C 99 % 1000,5 hPa 0,0 l/m 1,0 km/h (0 Bft) SW 223 0 min 0,000 mm 0,0 UV-I 47 W/m 5,7 C 5,8 C 3,2 km/h (1 Bft) 96,36 %
06.11.2016 08:08 5,8 C 99 % 1000,5 hPa 0,0 l/m 0,8 km/h (0 Bft) SW 223 0 min 0,000 mm 0,0 UV-I 42 W/m 5,7 C 5,8 C 1,6 km/h (1 Bft) 98,00 %
06.11.2016 08:10 5,8 C 99 % 1000,6 hPa 0,0 l/m 1,2 km/h (1 Bft) SW 223 0 min 0,000 mm 0,0 UV-I 37 W/m 5,7 C 5,8 C 1,6 km/h (1 Bft) 95,83 %
06.11.2016 08:12 5,9 C 99 % 1000,6 hPa 0,0 l/m 1,5 km/h (1 Bft) SW 223 0 min 0,000 mm 0,0 UV-I 29 W/m 5,8 C 5,9 C 3,2 km/h (1 Bft) 97,14 %
06.11.2016 08:14 5,9 C 99 % 1000,6 hPa 0,2 l/m 2,1 km/h (1 Bft) SW 223 0 min 0,000 mm 0,0 UV-I 23 W/m 5,8 C 5,9 C 3,2 km/h (1 Bft) 97,37 %
06.11.2016 08:16 5,9 C 99 % 1000,6 hPa 0,0 l/m 2,0 km/h (1 Bft) SW 223 0 min 0,000 mm 0,0 UV-I 24 W/m 5,8 C 5,9 C 3,2 km/h (1 Bft) 98,46 %
06.11.2016 08:18 5,9 C 99 % 1000,6 hPa 0,0 l/m 0,5 km/h (0 Bft) SW 223 0 min 0,000 mm 0,0 UV-I 31 W/m 5,8 C 5,9 C 1,6 km/h (1 Bft) 97,56 %
06.11.2016 08:20 5,9 C 99 % 1000,5 hPa 0,0 l/m 0,0 km/h (0 Bft) SW 223 0 min 0,000 mm 0,0 UV-I 39 W/m 5,8 C 5,9 C 0,0 km/h (0 Bft) 98,00 %
06.11.2016 08:22 5,9 C 99 % 1000,5 hPa 0,0 l/m 0,0 km/h (0 Bft) SW 223 0 min 0,000 mm 0,0 UV-I 45 W/m 5,8 C 5,9 C 1,6 km/h (1 Bft) 98,00 %
06.11.2016 08:24 6,0 C 99 % 1000,5 hPa 0,0 l/m 1,1 km/h (1 Bft) SW 223 0 min 0,000 mm 0,0 UV-I 51 W/m 5,9 C 6,0 C 1,6 km/h (1 Bft) 100,00 %
06.11.2016 08:26 6,0 C 99 % 1000,6 hPa 0,0 l/m 1,3 km/h (1 Bft) SW 223 0 min 0,000 mm 0,0 UV-I 52 W/m 5,9 C 6,0 C 1,6 km/h (1 Bft) 98,11 %
06.11.2016 08:28 6,0 C 99 % 1000,5 hPa 0,0 l/m 1,2 km/h (1 Bft) SW 223 0 min 0,000 mm 0,0 UV-I 48 W/m 5,9 C 6,0 C 3,2 km/h (1 Bft) 100,00 %
06.11.2016 08:30 6,1 C 99 % 1000,6 hPa 0,0 l/m 1,1 km/h (1 Bft) SW 223 0 min 0,000 mm 0,0 UV-I 44 W/m 6,0 C 6,1 C 3,2 km/h (1 Bft) 98,11 %
06.11.2016 08:32 6,1 C 99 % 1000,5 hPa 0,0 l/m 0,8 km/h (0 Bft) SW 223 0 min 0,000 mm 0,0 UV-I 48 W/m 6,0 C 6,1 C 1,6 km/h (1 Bft) 97,56 %
06.11.2016 08:34 6,1 C 99 % 1000,3 hPa 0,0 l/m 0,0 km/h (0 Bft) SW 223 0 min 0,000 mm 0,0 UV-I 55 W/m 6,0 C 6,1 C 0,0 km/h (0 Bft) 100,00 %
06.11.2016 08:36 6,1 C 99 % 1000,3 hPa 0,0 l/m 0,0 km/h (0 Bft) SW 223 0 min 0,000 mm 0,0 UV-I 58 W/m 6,0 C 6,1 C 0,0 km/h (0 Bft) 98,11 %
06.11.2016 08:38 6,1 C 99 % 1000,3 hPa 0,0 l/m 0,2 km/h (0 Bft) SW 223 0 min 0,000 mm 0,0 UV-I 56 W/m 6,0 C 6,1 C 1,6 km/h (1 Bft) 100,00 %
06.11.2016 08:40 6,1 C 99 % 1000,2 hPa 0,0 l/m 0,8 km/h (0 Bft) SW 223 0 min 0,000 mm 0,0 UV-I 53 W/m 6,0 C 6,1 C 3,2 km/h (1 Bft) 100,00 %
06.11.2016 08:42 6,1 C 99 % 1000,2 hPa 0,0 l/m 1,9 km/h (1 Bft) SW 223 0 min 0,000 mm 0,0 UV-I 52 W/m 6,0 C 6,1 C 3,2 km/h (1 Bft) 97,87 %
06.11.2016 08:44 6,1 C 99 % 1000,3 hPa 0,0 l/m 1,7 km/h (1 Bft) SW 223 0 min 0,000 mm 0,0 UV-I 50 W/m 6,0 C 6,1 C 3,2 km/h (1 Bft) 100,00 %
06.11.2016 08:46 6,1 C 99 % 1000,2 hPa 0,0 l/m 0,6 km/h (0 Bft) SW 223 0 min 0,000 mm 0,0 UV-I 47 W/m 6,0 C 6,1 C 3,2 km/h (1 Bft) 98,11 %
06.11.2016 08:48 6,1 C 99 % 1000,2 hPa 0,0 l/m 2,0 km/h (1 Bft) SW 223 0 min 0,000 mm 0,0 UV-I 47 W/m 6,0 C 6,1 C 3,2 km/h (1 Bft) 100,00 %
06.11.2016 08:50 6,1 C 99 % 1000,1 hPa 0,0 l/m 1,6 km/h (1 Bft) SW 223 0 min 0,000 mm 0,0 UV-I 48 W/m 6,0 C 6,1 C 3,2 km/h (1 Bft) 100,00 %
06.11.2016 08:52 6,1 C 99 % 1000,0 hPa 0,0 l/m 0,4 km/h (0 Bft) SW 223 0 min 0,000 mm 0,0 UV-I 50 W/m 6,0 C 6,1 C 3,2 km/h (1 Bft) 97,22 %
06.11.2016 08:54 6,1 C 99 % 1000,0 hPa 0,0 l/m 1,5 km/h (1 Bft) SW 223 0 min 0,000 mm 0,0 UV-I 47 W/m 6,0 C 6,1 C 3,2 km/h (1 Bft) 100,00 %
06.11.2016 08:56 6,2 C 99 % 1000,0 hPa 0,0 l/m 0,3 km/h (0 Bft) SW 223 0 min 0,000 mm 0,0 UV-I 45 W/m 6,1 C 6,2 C 1,6 km/h (1 Bft) 100,00 %
06.11.2016 08:58 6,2 C 99 % 1000,0 hPa 0,0 l/m 0,7 km/h (0 Bft) SW 223 0 min 0,000 mm 0,0 UV-I 40 W/m 6,1 C 6,2 C 1,6 km/h (1 Bft) 100,00 %
06.11.2016 09:00 6,2 C 99 % 1000,0 hPa 0,2 l/m 0,0 km/h (0 Bft) SW 223 0 min 0,025 mm 0,0 UV-I 34 W/m 6,1 C 6,2 C 0,0 km/h (0 Bft) 98,00 %
06.11.2016 09:02 6,2 C 98 % 1000,0 hPa 0,0 l/m 0,5 km/h (0 Bft) SW 223 0 min 0,000 mm 0,0 UV-I 34 W/m 5,9 C 6,2 C 1,6 km/h (1 Bft) 100,00 %
06.11.2016 09:04 6,2 C 98 % 1000,0 hPa 0,0 l/m 0,0 km/h (0 Bft) SW 223 0 min 0,000 mm 0,0 UV-I 34 W/m 5,9 C 6,2 C 0,0 km/h (0 Bft) 100,00 %
06.11.2016 09:06 6,2 C 98 % 999,9 hPa 0,0 l/m 0,0 km/h (0 Bft) SW 223 0 min 0,000 mm 0,0 UV-I 32 W/m 5,9 C 6,2 C 0,0 km/h (0 Bft) 100,00 %
06.11.2016 09:08 6,2 C 98 % 999,9 hPa 0,0 l/m 1,1 km/h (1 Bft) SW 223 0 min 0,000 mm 0,0 UV-I 35 W/m 5,9 C 6,2 C 3,2 km/h (1 Bft) 97,87 %
06.11.2016 09:10 6,2 C 98 % 999,8 hPa 0,0 l/m 0,4 km/h (0 Bft) SW 223 0 min 0,000 mm 0,0 UV-I 42 W/m 5,9 C 6,2 C 1,6 km/h (1 Bft) 96,00 %
06.11.2016 09:12 6,1 C 98 % 999,7 hPa 0,0 l/m 0,0 km/h (0 Bft) SW 223 0 min 0,000 mm 0,0 UV-I 46 W/m 5,8 C 6,1 C 0,0 km/h (0 Bft) 98,11 %
06.11.2016 09:14 6,2 C 98 % 999,7 hPa 0,0 l/m 0,0 km/h (0 Bft) SW 223 0 min 0,000 mm 0,0 UV-I 44 W/m 5,9 C 6,2 C 0,0 km/h (0 Bft) 100,00 %
06.11.2016 09:16 6,2 C 98 % 999,6 hPa 0,0 l/m 0,6 km/h (0 Bft) SW 223 0 min 0,000 mm 0,0 UV-I 42 W/m 5,9 C 6,2 C 1,6 km/h (1 Bft) 98,11 %
06.11.2016 09:18 6,2 C 98 % 999,6 hPa 0,0 l/m 0,1 km/h (0 Bft) SW 223 0 min 0,000 mm 0,0 UV-I 43 W/m 5,9 C 6,2 C 1,6 km/h (1 Bft) 100,00 %
06.11.2016 09:20 6,2 C 98 % 999,9 hPa 0,0 l/m 0,1 km/h (0 Bft) SW 223 0 min 0,000 mm 0,0 UV-I 37 W/m 5,9 C 6,2 C 1,6 km/h (1 Bft) 100,00 %
06.11.2016 09:22 6,2 C 98 % 999,9 hPa 0,0 l/m 1,6 km/h (1 Bft) SW 223 0 min 0,000 mm 0,0 UV-I 30 W/m 5,9 C 6,2 C 3,2 km/h (1 Bft) 100,00 %
06.11.2016 09:24 6,1 C 98 % 999,8 hPa 0,0 l/m 1,0 km/h (0 Bft) SW 223 0 min 0,000 mm 0,0 UV-I 29 W/m 5,8 C 6,1 C 4,8 km/h (1 Bft) 100,00 %
06.11.2016 09:26 6,1 C 98 % 999,8 hPa 0,0 l/m 1,2 km/h (1 Bft) SW 224 0 min 0,000 mm 0,0 UV-I 30 W/m 5,8 C 6,1 C 3,2 km/h (1 Bft) 97,92 %
06.11.2016 09:28 6,1 C 98 % 999,7 hPa 0,0 l/m 1,9 km/h (1 Bft) W 273 0 min 0,000 mm 0,0 UV-I 33 W/m 5,8 C 6,1 C 4,8 km/h (1 Bft) 100,00 %
06.11.2016 09:30 6,1 C 98 % 999,7 hPa 0,0 l/m 0,4 km/h (0 Bft) W 273 0 min 0,000 mm 0,0 UV-I 37 W/m 5,8 C 6,1 C 1,6 km/h (1 Bft) 100,00 %
06.11.2016 09:32 6,1 C 98 % 999,8 hPa 0,0 l/m 0,6 km/h (0 Bft) W 273 0 min 0,000 mm 0,0 UV-I 41 W/m 5,8 C 6,1 C 1,6 km/h (1 Bft) 100,00 %
06.11.2016 09:34 6,1 C 98 % 999,6 hPa 0,0 l/m 0,2 km/h (0 Bft) W 273 0 min 0,000 mm 0,0 UV-I 49 W/m 5,8 C 6,1 C 1,6 km/h (1 Bft) 100,00 %
06.11.2016 09:36 6,2 C 98 % 999,6 hPa 0,0 l/m 0,0 km/h (0 Bft) W 273 0 min 0,000 mm 0,0 UV-I 60 W/m 5,9 C 6,2 C 0,0 km/h (0 Bft) 100,00 %
06.11.2016 09:38 6,2 C 98 % 999,6 hPa 0,0 l/m 0,1 km/h (0 Bft) W 273 0 min 0,000 mm 0,0 UV-I 63 W/m 5,9 C 6,2 C 1,6 km/h (1 Bft) 100,00 %
06.11.2016 09:40 6,2 C 98 % 999,6 hPa 0,0 l/m 0,2 km/h (0 Bft) W 273 0 min 0,000 mm 0,0 UV-I 53 W/m 5,9 C 6,2 C 1,6 km/h (1 Bft) 100,00 %
06.11.2016 09:42 6,2 C 98 % 999,7 hPa 0,0 l/m 0,0 km/h (0 Bft) W 273 0 min 0,000 mm 0,0 UV-I 43 W/m 5,9 C 6,2 C 0,0 km/h (0 Bft) 100,00 %
06.11.2016 09:44 6,2 C 98 % 999,6 hPa 0,0 l/m 0,0 km/h (0 Bft) W 273 0 min 0,000 mm 0,0 UV-I 35 W/m 5,9 C 6,2 C 0,0 km/h (0 Bft) 97,87 %
06.11.2016 09:46 6,2 C 98 % 999,6 hPa 0,0 l/m 0,0 km/h (0 Bft) W 273 0 min 0,000 mm 0,0 UV-I 33 W/m 5,9 C 6,2 C 0,0 km/h (0 Bft) 97,37 %
06.11.2016 09:48 6,2 C 98 % 999,7 hPa 0,0 l/m 1,4 km/h (1 Bft) W 273 0 min 0,000 mm 0,0 UV-I 32 W/m 5,9 C 6,2 C 3,2 km/h (1 Bft) 97,87 %
06.11.2016 09:50 6,2 C 98 % 999,7 hPa 0,0 l/m 1,6 km/h (1 Bft) W 277 0 min 0,000 mm 0,0 UV-I 33 W/m 5,9 C 6,2 C 3,2 km/h (1 Bft) 100,00 %
06.11.2016 09:52 6,2 C 98 % 999,8 hPa 0,0 l/m 2,6 km/h (1 Bft) W 259 0 min 0,000 mm 0,0 UV-I 33 W/m 5,9 C 6,2 C 6,4 km/h (2 Bft) 96,23 %
06.11.2016 09:54 6,1 C 99 % 999,8 hPa 0,0 l/m 2,3 km/h (1 Bft) W 259 0 min 0,000 mm 0,0 UV-I 30 W/m 6,0 C 6,1 C 4,8 km/h (1 Bft) 98,00 %
06.11.2016 09:56 6,1 C 98 % 999,9 hPa 0,0 l/m 1,6 km/h (1 Bft) W 259 0 min 0,000 mm 0,0 UV-I 28 W/m 5,8 C 6,1 C 4,8 km/h (1 Bft) 95,74 %
06.11.2016 09:58 6,1 C 98 % 999,9 hPa 0,0 l/m 2,0 km/h (1 Bft) W 259 0 min 0,000 mm 0,0 UV-I 28 W/m 5,8 C 6,1 C 4,8 km/h (1 Bft) 95,12 %
06.11.2016 10:00 6,1 C 98 % 1000,0 hPa 0,0 l/m 3,0 km/h (1 Bft) W 279 0 min 0,026 mm 0,0 UV-I 28 W/m 5,8 C 6,1 C 6,4 km/h (2 Bft) 97,87 %
06.11.2016 10:02 6,1 C 98 % 1000,0 hPa 0,2 l/m 1,5 km/h (1 Bft) NW 306 0 min 0,000 mm 0,0 UV-I 22 W/m 5,8 C 6,1 C 4,8 km/h (1 Bft) 98,11 %
06.11.2016 10:04 6,1 C 98 % 1000,0 hPa 0,0 l/m 2,9 km/h (1 Bft) W 273 0 min 0,000 mm 0,0 UV-I 19 W/m 5,8 C 6,1 C 9,7 km/h (2 Bft) 97,22 %
06.11.2016 10:06 6,1 C 98 % 1000,0 hPa 0,0 l/m 3,8 km/h (1 Bft) W 266 0 min 0,000 mm 0,0 UV-I 21 W/m 5,8 C 6,1 C 9,7 km/h (2 Bft) 98,11 %
06.11.2016 10:08 6,0 C 98 % 1000,0 hPa 0,0 l/m 3,3 km/h (1 Bft) W 267 0 min 0,000 mm 0,0 UV-I 23 W/m 5,7 C 6,0 C 6,4 km/h (2 Bft) 95,92 %
06.11.2016 10:10 5,9 C 98 % 1000,0 hPa 0,0 l/m 2,5 km/h (1 Bft) W-NW 282 0 min 0,000 mm 0,0 UV-I 21 W/m 5,6 C 5,9 C 6,4 km/h (2 Bft) 100,00 %
06.11.2016 10:12 5,9 C 98 % 1000,0 hPa 0,0 l/m 0,6 km/h (0 Bft) W-NW 282 0 min 0,000 mm 0,0 UV-I 19 W/m 5,6 C 5,9 C 1,6 km/h (1 Bft) 97,06 %
06.11.2016 10:14 5,9 C 98 % 1000,1 hPa 0,2 l/m 1,0 km/h (0 Bft) W-NW 282 0 min 0,000 mm 0,0 UV-I 20 W/m 5,6 C 5,9 C 3,2 km/h (1 Bft) 97,87 %
06.11.2016 10:16 5,9 C 98 % 1000,1 hPa 0,0 l/m 2,2 km/h (1 Bft) W 259 0 min 0,000 mm 0,0 UV-I 23 W/m 5,6 C 5,9 C 4,8 km/h (1 Bft) 97,87 %
06.11.2016 10:18 5,8 C 98 % 1000,1 hPa 0,0 l/m 3,6 km/h (1 Bft) W 273 0 min 0,000 mm 0,0 UV-I 21 W/m 5,5 C 5,8 C 9,7 km/h (2 Bft) 97,56 %
06.11.2016 10:20 5,8 C 98 % 1000,1 hPa 0,0 l/m 1,2 km/h (1 Bft) W-SW 238 0 min 0,000 mm 0,0 UV-I 19 W/m 5,5 C 5,8 C 4,8 km/h (1 Bft) 98,00 %
06.11.2016 10:22 5,8 C 98 % 1000,1 hPa 0,2 l/m 3,5 km/h (1 Bft) W 274 0 min 0,000 mm 0,0 UV-I 20 W/m 5,5 C 5,8 C 8,0 km/h (2 Bft) 96,00 %
06.11.2016 10:24 5,8 C 98 % 1000,2 hPa 0,0 l/m 2,0 km/h (1 Bft) W 273 0 min 0,000 mm 0,0 UV-I 25 W/m 5,5 C 5,8 C 6,4 km/h (2 Bft) 97,73 %
06.11.2016 10:26 5,8 C 98 % 1000,2 hPa 0,0 l/m 1,9 km/h (1 Bft) W-NW 285 0 min 0,000 mm 0,0 UV-I 25 W/m 5,5 C 5,8 C 9,7 km/h (2 Bft) 100,00 %
06.11.2016 10:28 5,8 C 98 % 1000,2 hPa 0,0 l/m 3,0 km/h (1 Bft) W 263 0 min 0,000 mm 0,0 UV-I 25 W/m 5,5 C 5,8 C 4,8 km/h (1 Bft) 98,00 %
06.11.2016 10:30 5,8 C 98 % 1000,2 hPa 0,2 l/m 2,9 km/h (1 Bft) W 275 0 min 0,000 mm 0,0 UV-I 28 W/m 5,5 C 5,8 C 4,8 km/h (1 Bft) 100,00 %
06.11.2016 10:32 5,8 C 98 % 1000,2 hPa 0,0 l/m 1,9 km/h (1 Bft) W 278 0 min 0,000 mm 0,0 UV-I 33 W/m 5,5 C 5,8 C 3,2 km/h (1 Bft) 100,00 %
06.11.2016 10:34 5,8 C 98 % 1000,1 hPa 0,0 l/m 2,3 km/h (1 Bft) W-NW 292 0 min 0,000 mm 0,0 UV-I 38 W/m 5,5 C 5,8 C 4,8 km/h (1 Bft) 100,00 %
06.11.2016 10:36 5,8 C 98 % 1000,1 hPa 0,2 l/m 2,3 km/h (1 Bft) W-NW 289 0 min 0,000 mm 0,0 UV-I 41 W/m 5,5 C 5,8 C 8,0 km/h (2 Bft) 97,37 %
06.11.2016 10:38 5,8 C 98 % 1000,0 hPa 0,0 l/m 1,6 km/h (1 Bft) W-NW 284 0 min 0,000 mm 0,0 UV-I 35 W/m 5,5 C 5,8 C 3,2 km/h (1 Bft) 100,00 %
06.11.2016 10:40 5,8 C 98 % 1000,0 hPa 0,2 l/m 0,8 km/h (0 Bft) W 270 0 min 0,000 mm 0,0 UV-I 31 W/m 5,5 C 5,8 C 3,2 km/h (1 Bft) 100,00 %
06.11.2016 10:42 5,8 C 98 % 1000,0 hPa 0,2 l/m 2,1 km/h (1 Bft) W 269 0 min 0,000 mm 0,0 UV-I 33 W/m 5,5 C 5,8 C 9,7 km/h (2 Bft) 98,00 %
06.11.2016 10:44 5,8 C 98 % 1000,0 hPa 0,0 l/m 1,9 km/h (1 Bft) W-SW 253 0 min 0,000 mm 0,0 UV-I 33 W/m 5,5 C 5,8 C 6,4 km/h (2 Bft) 100,00 %
06.11.2016 10:46 5,8 C 98 % 999,9 hPa 0,2 l/m 3,2 km/h (1 Bft) W 271 0 min 0,000 mm 0,0 UV-I 40 W/m 5,5 C 5,8 C 6,4 km/h (2 Bft) 100,00 %
06.11.2016 10:48 5,8 C 98 % 999,9 hPa 0,0 l/m 3,9 km/h (1 Bft) W-SW 253 0 min 0,000 mm 0,0 UV-I 43 W/m 5,5 C 5,8 C 6,4 km/h (2 Bft) 100,00 %
06.11.2016 10:50 5,8 C 98 % 999,9 hPa 0,2 l/m 5,2 km/h (1 Bft) W 266 0 min 0,000 mm 0,0 UV-I 39 W/m 5,5 C 5,8 C 8,0 km/h (2 Bft) 100,00 %
06.11.2016 10:52 5,8 C 98 % 999,9 hPa 0,0 l/m 3,1 km/h (1 Bft) W 277 0 min 0,000 mm 0,0 UV-I 36 W/m 5,5 C 5,8 C 4,8 km/h (1 Bft) 98,11 %
06.11.2016 10:54 5,8 C 98 % 999,9 hPa 0,2 l/m 3,3 km/h (1 Bft) W 279 0 min 0,000 mm 0,0 UV-I 35 W/m 5,5 C 5,8 C 4,8 km/h (1 Bft) 100,00 %
06.11.2016 10:56 5,8 C 98 % 999,9 hPa 0,0 l/m 4,2 km/h (1 Bft) W 268 0 min 0,000 mm 0,0 UV-I 35 W/m 5,5 C 5,8 C 8,0 km/h (2 Bft) 100,00 %
06.11.2016 10:58 5,8 C 98 % 999,9 hPa 0,2 l/m 3,0 km/h (1 Bft) W-NW 286 0 min 0,000 mm 0,0 UV-I 35 W/m 5,5 C 5,8 C 4,8 km/h (1 Bft) 100,00 %
06.11.2016 11:00 5,8 C 98 % 999,8 hPa 0,0 l/m 4,7 km/h (1 Bft) W 269 0 min 0,000 mm 0,0 UV-I 39 W/m 5,5 C 5,8 C 6,4 km/h (2 Bft) 100,00 %
06.11.2016 11:02 5,8 C 98 % 999,9 hPa 0,0 l/m 3,7 km/h (1 Bft) W 281 0 min 0,000 mm 0,0 UV-I 40 W/m 5,5 C 5,8 C 6,4 km/h (2 Bft) 100,00 %
06.11.2016 11:04 5,8 C 98 % 999,9 hPa 0,0 l/m 6,0 km/h (2 Bft) W-NW 284 0 min 0,000 mm 0,0 UV-I 46 W/m 5,5 C 5,8 C 12,9 km/h (3 Bft) 100,00 %
06.11.2016 11:06 5,8 C 98 % 1000,0 hPa 0,2 l/m 6,1 km/h (2 Bft) W-SW 250 0 min 0,000 mm 0,0 UV-I 46 W/m 5,5 C 5,8 C 9,7 km/h (2 Bft) 100,00 %
06.11.2016 11:08 5,8 C 98 % 1000,2 hPa 0,0 l/m 5,4 km/h (1 Bft) W 275 0 min 0,000 mm 0,0 UV-I 43 W/m 5,5 C 5,8 C 6,4 km/h (2 Bft) 100,00 %
06.11.2016 11:10 5,8 C 98 % 1000,2 hPa 0,2 l/m 5,7 km/h (1 Bft) W-SW 241 0 min 0,000 mm 0,0 UV-I 42 W/m 5,5 C 5,8 C 11,3 km/h (2 Bft) 100,00 %
06.11.2016 11:12 5,8 C 99 % 1000,2 hPa 0,0 l/m 5,8 km/h (2 Bft) W-SW 248 0 min 0,000 mm 0,0 UV-I 42 W/m 5,7 C 5,8 C 9,7 km/h (2 Bft) 95,74 %
06.11.2016 11:14 5,8 C 99 % 1000,2 hPa 0,0 l/m 8,2 km/h (2 Bft) W 271 0 min 0,000 mm 0,0 UV-I 42 W/m 5,7 C 4,3 C 14,5 km/h (3 Bft) 100,00 %
06.11.2016 11:16 5,8 C 99 % 1000,2 hPa 0,2 l/m 8,6 km/h (2 Bft) W-SW 257 0 min 0,000 mm 0,0 UV-I 44 W/m 5,7 C 4,0 C 12,9 km/h (3 Bft) 100,00 %
06.11.2016 11:18 5,9 C 99 % 1000,2 hPa 0,0 l/m 6,8 km/h (2 Bft) W 279 0 min 0,000 mm 0,0 UV-I 48 W/m 5,8 C 5,6 C 11,3 km/h (2 Bft) 100,00 %
06.11.2016 11:20 5,9 C 99 % 1000,2 hPa 0,2 l/m 10,1 km/h (2 Bft) W 262 0 min 0,000 mm 0,0 UV-I 53 W/m 5,8 C 3,0 C 14,5 km/h (3 Bft) 100,00 %
06.11.2016 11:22 5,9 C 99 % 1000,1 hPa 0,0 l/m 10,1 km/h (2 Bft) W 265 0 min 0,000 mm 0,0 UV-I 53 W/m 5,8 C 3,0 C 12,9 km/h (3 Bft) 100,00 %
06.11.2016 11:24 5,9 C 99 % 1000,1 hPa 0,2 l/m 7,7 km/h (2 Bft) W-SW 245 0 min 0,000 mm 0,0 UV-I 52 W/m 5,8 C 4,8 C 12,9 km/h (3 Bft) 100,00 %
06.11.2016 11:26 5,9 C 99 % 1000,1 hPa 0,0 l/m 7,4 km/h (2 Bft) W-SW 258 0 min 0,000 mm 0,0 UV-I 53 W/m 5,8 C 5,0 C 11,3 km/h (2 Bft) 100,00 %
06.11.2016 11:28 5,9 C 99 % 1000,2 hPa 0,2 l/m 8,2 km/h (2 Bft) W-SW 252 0 min 0,000 mm 0,0 UV-I 56 W/m 5,8 C 4,4 C 12,9 km/h (3 Bft) 100,00 %
06.11.2016 11:30 5,9 C 99 % 1000,2 hPa 0,0 l/m 10,4 km/h (2 Bft) W-SW 244 0 min 0,000 mm 0,0 UV-I 52 W/m 5,8 C 2,8 C 14,5 km/h (3 Bft) 100,00 %
06.11.2016 11:32 5,9 C 99 % 1000,2 hPa 0,0 l/m 8,8 km/h (2 Bft) W-SW 245 0 min 0,000 mm 0,0 UV-I 52 W/m 5,8 C 3,9 C 14,5 km/h (3 Bft) 100,00 %
06.11.2016 11:34 5,9 C 99 % 1000,2 hPa 0,0 l/m 7,5 km/h (2 Bft) W-SW 250 0 min 0,000 mm 0,0 UV-I 57 W/m 5,8 C 5,0 C 11,3 km/h (2 Bft) 100,00 %
06.11.2016 11:36 6,0 C 99 % 1000,3 hPa 0,2 l/m 8,3 km/h (2 Bft) W 263 0 min 0,000 mm 0,0 UV-I 67 W/m 5,9 C 4,4 C 12,9 km/h (3 Bft) 100,00 %
06.11.2016 11:38 6,0 C 99 % 1000,3 hPa 0,0 l/m 9,3 km/h (2 Bft) W 260 0 min 0,000 mm 0,0 UV-I 68 W/m 5,9 C 3,7 C 12,9 km/h (3 Bft) 100,00 %
06.11.2016 11:40 6,0 C 99 % 1000,3 hPa 0,2 l/m 6,3 km/h (2 Bft) SW 219 0 min 0,000 mm 0,0 UV-I 66 W/m 5,9 C 6,0 C 11,3 km/h (2 Bft) 100,00 %
06.11.2016 11:42 6,0 C 99 % 1000,3 hPa 0,0 l/m 9,3 km/h (2 Bft) W-SW 250 0 min 0,000 mm 0,0 UV-I 64 W/m 5,9 C 3,7 C 14,5 km/h (3 Bft) 100,00 %
06.11.2016 11:44 6,0 C 99 % 1000,3 hPa 0,0 l/m 10,6 km/h (2 Bft) W-SW 254 0 min 0,000 mm 0,0 UV-I 61 W/m 5,9 C 2,8 C 16,1 km/h (3 Bft) 100,00 %
06.11.2016 11:46 6,0 C 98 % 1000,3 hPa 0,2 l/m 12,0 km/h (2 Bft) W 265 0 min 0,000 mm 0,0 UV-I 62 W/m 5,7 C 1,9 C 16,1 km/h (3 Bft) 100,00 %
06.11.2016 11:48 6,0 C 98 % 1000,3 hPa 0,0 l/m 10,2 km/h (2 Bft) W 260 0 min 0,000 mm 0,0 UV-I 56 W/m 5,7 C 3,0 C 16,1 km/h (3 Bft) 93,10 %
06.11.2016 11:50 6,0 C 98 % 1000,4 hPa 0,0 l/m 8,6 km/h (2 Bft) W-SW 254 0 min 0,000 mm 0,0 UV-I 51 W/m 5,7 C 4,2 C 12,9 km/h (3 Bft) 100,00 %
06.11.2016 11:52 6,0 C 98 % 1000,4 hPa 0,2 l/m 7,6 km/h (2 Bft) W-SW 251 0 min 0,000 mm 0,0 UV-I 49 W/m 5,7 C 5,0 C 14,5 km/h (3 Bft) 98,11 %
06.11.2016 11:54 5,9 C 98 % 1000,4 hPa 0,0 l/m 13,7 km/h (3 Bft) W 278 0 min 0,000 mm 0,0 UV-I 46 W/m 5,6 C 0,8 C 20,9 km/h (4 Bft) 97,87 %
06.11.2016 11:56 5,9 C 98 % 1000,4 hPa 0,0 l/m 10,3 km/h (2 Bft) W-SW 254 0 min 0,000 mm 0,0 UV-I 47 W/m 5,6 C 2,9 C 16,1 km/h (3 Bft) 94,29 %
06.11.2016 11:58 5,9 C 98 % 1000,4 hPa 0,0 l/m 9,5 km/h (2 Bft) W 281 0 min 0,000 mm 0,0 UV-I 45 W/m 5,6 C 3,4 C 14,5 km/h (3 Bft) 95,74 %
06.11.2016 12:00 5,9 C 98 % 1000,4 hPa 0,2 l/m 8,9 km/h (2 Bft) SW 233 0 min 0,025 mm 0,0 UV-I 47 W/m 5,6 C 3,9 C 12,9 km/h (3 Bft) 98,00 %
06.11.2016 12:02 5,9 C 98 % 1000,4 hPa 0,0 l/m 11,1 km/h (2 Bft) W-SW 240 0 min 0,000 mm 0,0 UV-I 52 W/m 5,6 C 2,3 C 17,7 km/h (3 Bft) 98,00 %
06.11.2016 12:04 5,9 C 98 % 1000,4 hPa 0,0 l/m 12,2 km/h (2 Bft) W 265 0 min 0,000 mm 0,0 UV-I 58 W/m 5,6 C 1,7 C 17,7 km/h (3 Bft) 97,62 %
06.11.2016 12:06 5,9 C 98 % 1000,3 hPa 0,2 l/m 9,7 km/h (2 Bft) W-SW 238 0 min 0,000 mm 0,0 UV-I 63 W/m 5,6 C 3,3 C 16,1 km/h (3 Bft) 94,55 %
06.11.2016 12:08 5,9 C 98 % 1000,3 hPa 0,0 l/m 9,4 km/h (2 Bft) W 280 0 min 0,000 mm 0,0 UV-I 63 W/m 5,6 C 3,5 C 16,1 km/h (3 Bft) 97,44 %
06.11.2016 12:10 5,8 C 98 % 1000,3 hPa 0,2 l/m 12,7 km/h (3 Bft) W-SW 255 0 min 0,000 mm 0,0 UV-I 61 W/m 5,5 C 1,3 C 17,7 km/h (3 Bft) 96,23 %
06.11.2016 12:12 5,9 C 98 % 1000,3 hPa 0,0 l/m 8,0 km/h (2 Bft) W-SW 246 0 min 0,000 mm 0,0 UV-I 59 W/m 5,6 C 4,5 C 14,5 km/h (3 Bft) 97,56 %
06.11.2016 12:14 5,9 C 98 % 1000,3 hPa 0,2 l/m 6,6 km/h (2 Bft) W 262 0 min 0,000 mm 0,0 UV-I 58 W/m 5,6 C 5,8 C 11,3 km/h (2 Bft) 95,74 %
06.11.2016 12:16 5,9 C 98 % 1000,2 hPa 0,0 l/m 9,4 km/h (2 Bft) W-SW 242 0 min 0,000 mm 0,0 UV-I 64 W/m 5,6 C 3,5 C 14,5 km/h (3 Bft) 98,00 %
06.11.2016 12:18 5,9 C 98 % 1000,2 hPa 0,0 l/m 9,5 km/h (2 Bft) W-SW 248 0 min 0,000 mm 0,0 UV-I 65 W/m 5,6 C 3,4 C 17,7 km/h (3 Bft) 98,11 %
06.11.2016 12:20 5,9 C 98 % 1000,1 hPa 0,2 l/m 12,8 km/h (3 Bft) W 263 0 min 0,000 mm 0,0 UV-I 73 W/m 5,6 C 1,3 C 19,3 km/h (3 Bft) 97,56 %
06.11.2016 12:22 5,9 C 98 % 1000,1 hPa 0,0 l/m 9,4 km/h (2 Bft) W-SW 248 0 min 0,000 mm 0,0 UV-I 74 W/m 5,6 C 3,5 C 14,5 km/h (3 Bft) 96,15 %
06.11.2016 12:24 5,9 C 98 % 1000,1 hPa 0,0 l/m 11,4 km/h (2 Bft) W-SW 244 0 min 0,000 mm 0,0 UV-I 68 W/m 5,6 C 2,2 C 14,5 km/h (3 Bft) 97,06 %
06.11.2016 12:26 5,9 C 98 % 1000,1 hPa 0,0 l/m 11,2 km/h (2 Bft) W 279 0 min 0,000 mm 0,0 UV-I 75 W/m 5,6 C 2,3 C 17,7 km/h (3 Bft) 96,00 %
06.11.2016 12:28 5,9 C 98 % 1000,0 hPa 0,2 l/m 8,1 km/h (2 Bft) W 273 0 min 0,000 mm 0,0 UV-I 91 W/m 5,6 C 4,5 C 11,3 km/h (2 Bft) 97,37 %
06.11.2016 12:30 5,9 C 98 % 1000,1 hPa 0,0 l/m 8,3 km/h (2 Bft) S-SW 212 0 min 0,000 mm 0,0 UV-I 84 W/m 5,6 C 4,3 C 16,1 km/h (3 Bft) 100,00 %
06.11.2016 12:32 5,9 C 98 % 1000,1 hPa 0,0 l/m 9,8 km/h (2 Bft) W 279 0 min 0,000 mm 0,0 UV-I 81 W/m 5,6 C 3,2 C 14,5 km/h (3 Bft) 97,37 %
06.11.2016 12:34 5,9 C 98 % 1000,2 hPa 0,0 l/m 11,5 km/h (2 Bft) W-SW 253 0 min 0,000 mm 0,0 UV-I 84 W/m 5,6 C 2,1 C 17,7 km/h (3 Bft) 100,00 %
06.11.2016 12:36 5,9 C 98 % 1000,1 hPa 0,2 l/m 13,4 km/h (3 Bft) W 275 0 min 0,000 mm 0,0 UV-I 81 W/m 5,6 C 1,0 C 22,5 km/h (4 Bft) 100,00 %
06.11.2016 12:38 5,9 C 98 % 1000,0 hPa 0,0 l/m 13,2 km/h (3 Bft) W 281 0 min 0,000 mm 0,0 UV-I 84 W/m 5,6 C 1,1 C 19,3 km/h (3 Bft) 100,00 %
06.11.2016 12:40 5,9 C 98 % 1000,0 hPa 0,0 l/m 10,3 km/h (2 Bft) W-SW 241 0 min 0,000 mm 0,0 UV-I 89 W/m 5,6 C 2,9 C 16,1 km/h (3 Bft) 100,00 %
06.11.2016 12:42 5,9 C 98 % 999,9 hPa 0,0 l/m 9,6 km/h (2 Bft) W-SW 237 0 min 0,000 mm 0,0 UV-I 92 W/m 5,6 C 3,3 C 14,5 km/h (3 Bft) 97,87 %
06.11.2016 12:44 5,9 C 98 % 1000,0 hPa 0,0 l/m 8,3 km/h (2 Bft) W 263 0 min 0,000 mm 0,0 UV-I 89 W/m 5,6 C 4,3 C 14,5 km/h (3 Bft) 98,00 %
06.11.2016 12:46 5,9 C 98 % 1000,0 hPa 0,2 l/m 9,3 km/h (2 Bft) W-SW 250 0 min 0,000 mm 0,0 UV-I 76 W/m 5,6 C 3,6 C 14,5 km/h (3 Bft) 100,00 %
06.11.2016 12:48 5,9 C 98 % 1000,0 hPa 0,0 l/m 10,9 km/h (2 Bft) SW 219 0 min 0,000 mm 0,0 UV-I 76 W/m 5,6 C 2,5 C 16,1 km/h (3 Bft) 100,00 %
06.11.2016 12:50 5,9 C 98 % 1000,0 hPa 0,0 l/m 7,6 km/h (2 Bft) W 274 0 min 0,000 mm 0,0 UV-I 74 W/m 5,6 C 4,9 C 12,9 km/h (3 Bft) 97,37 %
06.11.2016 12:52 5,9 C 98 % 1000,0 hPa 0,0 l/m 8,7 km/h (2 Bft) S-SW 207 0 min 0,000 mm 0,0 UV-I 68 W/m 5,6 C 4,0 C 12,9 km/h (3 Bft) 98,11 %
06.11.2016 12:54 5,9 C 98 % 1000,1 hPa 0,0 l/m 9,7 km/h (2 Bft) W-SW 255 0 min 0,000 mm 0,0 UV-I 60 W/m 5,6 C 3,3 C 14,5 km/h (3 Bft) 98,11 %
06.11.2016 12:56 5,9 C 98 % 1000,1 hPa 0,0 l/m 10,6 km/h (2 Bft) W-SW 250 0 min 0,000 mm 0,0 UV-I 53 W/m 5,6 C 2,7 C 16,1 km/h (3 Bft) 100,00 %
06.11.2016 12:58 5,9 C 98 % 1000,1 hPa 0,0 l/m 10,2 km/h (2 Bft) W-SW 241 0 min 0,000 mm 0,0 UV-I 55 W/m 5,6 C 2,9 C 14,5 km/h (3 Bft) 100,00 %
06.11.2016 13:00 5,8 C 97 % 1000,1 hPa 0,0 l/m 11,7 km/h (2 Bft) W-NW 283 0 min 0,000 mm 0,0 UV-I 62 W/m 5,4 C 1,9 C 17,7 km/h (3 Bft) 97,56 %
06.11.2016 13:02 5,8 C 97 % 1000,1 hPa 0,0 l/m 9,8 km/h (2 Bft) W-NW 287 0 min 0,026 mm 0,0 UV-I 65 W/m 5,4 C 3,1 C 14,5 km/h (3 Bft) 98,11 %
06.11.2016 13:04 5,8 C 97 % 1000,1 hPa 0,0 l/m 9,9 km/h (2 Bft) W 265 0 min 0,000 mm 0,0 UV-I 68 W/m 5,4 C 3,0 C 19,3 km/h (3 Bft) 100,00 %
06.11.2016 13:06 5,7 C 97 % 1000,0 hPa 0,0 l/m 8,4 km/h (2 Bft) W-SW 250 0 min 0,000 mm 0,0 UV-I 68 W/m 5,3 C 4,0 C 11,3 km/h (2 Bft) 100,00 %
06.11.2016 13:08 5,7 C 97 % 1000,1 hPa 0,0 l/m 8,7 km/h (2 Bft) W-SW 239 0 min 0,000 mm 0,0 UV-I 63 W/m 5,3 C 3,8 C 12,9 km/h (3 Bft) 100,00 %
06.11.2016 13:10 5,7 C 97 % 1000,1 hPa 0,0 l/m 11,7 km/h (2 Bft) W 264 0 min 0,000 mm 0,0 UV-I 62 W/m 5,3 C 1,7 C 17,7 km/h (3 Bft) 98,39 %
06.11.2016 13:12 5,7 C 97 % 1000,2 hPa 0,0 l/m 15,8 km/h (3 Bft) W-SW 254 0 min 0,000 mm 0,0 UV-I 59 W/m 5,3 C -0,5 C 24,1 km/h (4 Bft) 100,00 %
06.11.2016 13:14 5,6 C 97 % 1000,0 hPa 0,0 l/m 13,8 km/h (3 Bft) W 264 0 min 0,000 mm 0,0 UV-I 61 W/m 5,2 C 0,4 C 19,3 km/h (3 Bft) 100,00 %
06.11.2016 13:16 5,6 C 97 % 1000,0 hPa 0,0 l/m 10,1 km/h (2 Bft) W-SW 244 0 min 0,000 mm 0,0 UV-I 69 W/m 5,2 C 2,7 C 17,7 km/h (3 Bft) 98,00 %
06.11.2016 13:18 5,5 C 97 % 1000,0 hPa 0,2 l/m 11,9 km/h (2 Bft) SW 236 0 min 0,000 mm 0,0 UV-I 76 W/m 5,1 C 1,4 C 20,9 km/h (4 Bft) 100,00 %
06.11.2016 13:20 5,4 C 97 % 1000,0 hPa 0,0 l/m 15,8 km/h (3 Bft) W-SW 255 0 min 0,000 mm 0,0 UV-I 79 W/m 5,0 C -0,8 C 20,9 km/h (4 Bft) 100,00 %
06.11.2016 13:22 5,4 C 97 % 1000,1 hPa 0,0 l/m 10,0 km/h (2 Bft) W 263 0 min 0,000 mm 0,0 UV-I 72 W/m 5,0 C 2,5 C 17,7 km/h (3 Bft) 97,73 %
06.11.2016 13:24 5,4 C 97 % 1000,1 hPa 0,0 l/m 9,9 km/h (2 Bft) W 266 0 min 0,000 mm 0,0 UV-I 56 W/m 5,0 C 2,6 C 12,9 km/h (3 Bft) 100,00 %
06.11.2016 13:26 5,3 C 97 % 1000,1 hPa 0,0 l/m 9,7 km/h (2 Bft) W 276 0 min 0,000 mm 0,0 UV-I 47 W/m 4,9 C 2,6 C 14,5 km/h (3 Bft) 100,00 %
06.11.2016 13:28 5,3 C 97 % 1000,1 hPa 0,0 l/m 12,5 km/h (3 Bft) W-SW 255 0 min 0,000 mm 0,0 UV-I 52 W/m 4,9 C 0,8 C 19,3 km/h (3 Bft) 95,83 %
06.11.2016 13:30 5,3 C 96 % 1000,1 hPa 0,0 l/m 10,6 km/h (2 Bft) W-SW 246 0 min 0,000 mm 0,0 UV-I 49 W/m 4,7 C 2,0 C 17,7 km/h (3 Bft) 97,37 %
06.11.2016 13:32 5,3 C 97 % 1000,1 hPa 0,0 l/m 9,5 km/h (2 Bft) W 261 0 min 0,000 mm 0,0 UV-I 48 W/m 4,9 C 2,8 C 16,1 km/h (3 Bft) 100,00 %
06.11.2016 13:34 5,2 C 97 % 1000,0 hPa 0,0 l/m 9,6 km/h (2 Bft) W-SW 257 0 min 0,000 mm 0,0 UV-I 54 W/m 4,8 C 2,6 C 12,9 km/h (3 Bft) 100,00 %
06.11.2016 13:36 5,2 C 97 % 1000,0 hPa 0,0 l/m 9,0 km/h (2 Bft) W 259 0 min 0,000 mm 0,0 UV-I 53 W/m 4,8 C 3,0 C 12,9 km/h (3 Bft) 100,00 %
06.11.2016 13:38 5,2 C 97 % 1000,1 hPa 0,0 l/m 10,9 km/h (2 Bft) W 263 0 min 0,000 mm 0,0 UV-I 52 W/m 4,8 C 1,7 C 14,5 km/h (3 Bft) 100,00 %
06.11.2016 13:40 5,2 C 97 % 1000,1 hPa 0,0 l/m 11,7 km/h (2 Bft) W-SW 253 0 min 0,000 mm 0,0 UV-I 54 W/m 4,8 C 1,2 C 17,7 km/h (3 Bft) 100,00 %
06.11.2016 13:42 5,2 C 97 % 1000,0 hPa 0,2 l/m 9,3 km/h (2 Bft) W 268 0 min 0,000 mm 0,0 UV-I 53 W/m 4,8 C 2,8 C 14,5 km/h (3 Bft) 98,00 %
06.11.2016 13:44 5,2 C 97 % 1000,1 hPa 0,0 l/m 13,0 km/h (3 Bft) W-SW 252 0 min 0,000 mm 0,0 UV-I 53 W/m 4,8 C 0,4 C 22,5 km/h (4 Bft) 100,00 %
06.11.2016 13:46 5,2 C 97 % 1000,1 hPa 0,0 l/m 11,6 km/h (2 Bft) W 263 0 min 0,000 mm 0,0 UV-I 52 W/m 4,8 C 1,2 C 19,3 km/h (3 Bft) 97,37 %
06.11.2016 13:48 5,2 C 97 % 1000,0 hPa 0,0 l/m 11,5 km/h (2 Bft) W 265 0 min 0,000 mm 0,0 UV-I 50 W/m 4,8 C 1,3 C 14,5 km/h (3 Bft) 100,00 %
06.11.2016 13:50 5,1 C 97 % 1000,1 hPa 0,0 l/m 9,0 km/h (2 Bft) W-SW 246 0 min 0,000 mm 0,0 UV-I 46 W/m 4,7 C 2,9 C 12,9 km/h (3 Bft) 100,00 %
06.11.2016 13:52 5,1 C 97 % 1000,2 hPa 0,0 l/m 10,4 km/h (2 Bft) SW 234 0 min 0,000 mm 0,0 UV-I 39 W/m 4,7 C 1,9 C 14,5 km/h (3 Bft) 100,00 %
06.11.2016 13:54 5,1 C 97 % 1000,3 hPa 0,0 l/m 11,5 km/h (2 Bft) W-SW 253 0 min 0,000 mm 0,0 UV-I 33 W/m 4,7 C 1,2 C 19,3 km/h (3 Bft) 100,00 %
06.11.2016 13:56 5,1 C 97 % 1000,3 hPa 0,0 l/m 8,7 km/h (2 Bft) W-SW 239 0 min 0,000 mm 0,0 UV-I 26 W/m 4,7 C 3,1 C 14,5 km/h (3 Bft) 98,00 %
06.11.2016 13:58 5,1 C 97 % 1000,4 hPa 0,2 l/m 11,5 km/h (2 Bft) W-SW 248 0 min 0,000 mm 0,0 UV-I 25 W/m 4,7 C 1,2 C 19,3 km/h (3 Bft) 98,00 %
06.11.2016 14:00 5,1 C 97 % 1000,5 hPa 0,0 l/m 10,8 km/h (2 Bft) W 259 0 min 0,025 mm 0,0 UV-I 30 W/m 4,7 C 1,6 C 16,1 km/h (3 Bft) 95,12 %
06.11.2016 14:02 5,0 C 97 % 1000,5 hPa 0,0 l/m 11,5 km/h (2 Bft) W 259 0 min 0,000 mm 0,0 UV-I 35 W/m 4,6 C 1,1 C 16,1 km/h (3 Bft) 98,00 %
06.11.2016 14:04 5,0 C 97 % 1000,5 hPa 0,2 l/m 11,4 km/h (2 Bft) W 261 0 min 0,000 mm 0,0 UV-I 39 W/m 4,6 C 1,1 C 19,3 km/h (3 Bft) 97,87 %
06.11.2016 14:06 4,9 C 96 % 1000,4 hPa 0,0 l/m 13,3 km/h (3 Bft) W-SW 247 0 min 0,000 mm 0,0 UV-I 37 W/m 4,3 C -0,1 C 20,9 km/h (4 Bft) 97,78 %
06.11.2016 14:08 4,9 C 96 % 1000,3 hPa 0,0 l/m 10,0 km/h (2 Bft) W 271 0 min 0,000 mm 0,0 UV-I 36 W/m 4,3 C 2,0 C 20,9 km/h (4 Bft) 98,00 %
06.11.2016 14:10 4,8 C 97 % 1000,2 hPa 0,2 l/m 7,6 km/h (2 Bft) W-NW 282 0 min 0,000 mm 0,0 UV-I 35 W/m 4,4 C 3,7 C 14,5 km/h (3 Bft) 94,74 %
06.11.2016 14:12 4,8 C 97 % 1000,2 hPa 0,2 l/m 8,2 km/h (2 Bft) W-SW 254 0 min 0,000 mm 0,0 UV-I 30 W/m 4,4 C 3,2 C 14,5 km/h (3 Bft) 96,00 %
06.11.2016 14:14 4,8 C 97 % 1000,2 hPa 0,0 l/m 6,7 km/h (2 Bft) W 259 0 min 0,000 mm 0,0 UV-I 27 W/m 4,4 C 4,6 C 9,7 km/h (2 Bft) 97,87 %
06.11.2016 14:16 4,8 C 97 % 1000,3 hPa 0,2 l/m 9,7 km/h (2 Bft) W-NW 284 0 min 0,000 mm 0,0 UV-I 27 W/m 4,4 C 2,1 C 14,5 km/h (3 Bft) 98,11 %
06.11.2016 14:18 4,7 C 97 % 1000,3 hPa 0,0 l/m 12,7 km/h (3 Bft) W-SW 253 0 min 0,000 mm 0,0 UV-I 22 W/m 4,3 C -0,0 C 19,3 km/h (3 Bft) 93,18 %
06.11.2016 14:20 4,7 C 97 % 1000,4 hPa 0,0 l/m 15,4 km/h (3 Bft) W 266 0 min 0,000 mm 0,0 UV-I 19 W/m 4,3 C -1,5 C 25,7 km/h (4 Bft) 94,74 %
06.11.2016 14:22 4,7 C 97 % 1000,4 hPa 0,2 l/m 13,1 km/h (3 Bft) W-SW 258 0 min 0,000 mm 0,0 UV-I 21 W/m 4,3 C -0,2 C 17,7 km/h (3 Bft) 98,21 %
06.11.2016 14:24 4,6 C 97 % 1000,5 hPa 0,0 l/m 9,4 km/h (2 Bft) W-SW 255 0 min 0,000 mm 0,0 UV-I 18 W/m 4,2 C 2,1 C 20,9 km/h (4 Bft) 97,87 %
06.11.2016 14:26 4,6 C 97 % 1000,5 hPa 0,0 l/m 10,3 km/h (2 Bft) W-SW 250 0 min 0,000 mm 0,0 UV-I 16 W/m 4,2 C 1,4 C 14,5 km/h (3 Bft) 97,14 %
06.11.2016 14:28 4,6 C 97 % 1000,8 hPa 0,0 l/m 10,9 km/h (2 Bft) W-SW 243 0 min 0,000 mm 0,0 UV-I 16 W/m 4,2 C 1,0 C 16,1 km/h (3 Bft) 92,86 %
06.11.2016 14:30 4,6 C 97 % 1000,7 hPa 0,0 l/m 12,4 km/h (3 Bft) W 265 0 min 0,000 mm 0,0 UV-I 15 W/m 4,2 C 0,1 C 20,9 km/h (4 Bft) 96,23 %
06.11.2016 14:32 4,5 C 97 % 1000,7 hPa 0,2 l/m 16,0 km/h (3 Bft) W-SW 253 0 min 0,000 mm 0,0 UV-I 16 W/m 4,1 C -2,0 C 20,9 km/h (4 Bft) 100,00 %
06.11.2016 14:34 4,4 C 97 % 1000,7 hPa 0,0 l/m 15,4 km/h (3 Bft) W 277 0 min 0,000 mm 0,0 UV-I 14 W/m 4,0 C -1,9 C 20,9 km/h (4 Bft) 98,21 %
06.11.2016 14:36 4,4 C 97 % 1000,8 hPa 0,0 l/m 12,9 km/h (3 Bft) W-SW 248 0 min 0,000 mm 0,0 UV-I 15 W/m 4,0 C -0,5 C 17,7 km/h (3 Bft) 100,00 %
06.11.2016 14:38 4,3 C 96 % 1000,8 hPa 0,0 l/m 14,1 km/h (3 Bft) W-SW 256 0 min 0,000 mm 0,0 UV-I 15 W/m 3,7 C -1,3 C 19,3 km/h (3 Bft) 95,74 %
06.11.2016 14:40 4,3 C 96 % 1000,7 hPa 0,0 l/m 15,0 km/h (3 Bft) W 261 0 min 0,000 mm 0,0 UV-I 17 W/m 3,7 C -1,8 C 22,5 km/h (4 Bft) 100,00 %
06.11.2016 14:42 4,3 C 96 % 1000,6 hPa 0,2 l/m 18,0 km/h (3 Bft) SW 236 0 min 0,000 mm 0,0 UV-I 19 W/m 3,7 C -3,2 C 29,0 km/h (5 Bft) 98,15 %
06.11.2016 14:44 4,2 C 96 % 1000,8 hPa 0,0 l/m 16,4 km/h (3 Bft) W-SW 254 0 min 0,000 mm 0,0 UV-I 19 W/m 3,6 C -2,6 C 24,1 km/h (4 Bft) 100,00 %
06.11.2016 14:46 4,2 C 97 % 1001,2 hPa 0,0 l/m 14,8 km/h (3 Bft) W-SW 254 0 min 0,000 mm 0,0 UV-I 19 W/m 3,8 C -1,8 C 22,5 km/h (4 Bft) 100,00 %
06.11.2016 14:48 4,2 C 97 % 1001,2 hPa 0,0 l/m 15,1 km/h (3 Bft) W-SW 254 0 min 0,000 mm 0,0 UV-I 15 W/m 3,8 C -1,9 C 19,3 km/h (3 Bft) 94,87 %
06.11.2016 14:50 4,2 C 97 % 1001,2 hPa 0,2 l/m 14,2 km/h (3 Bft) W-SW 250 0 min 0,000 mm 0,0 UV-I 15 W/m 3,8 C -1,5 C 27,4 km/h (4 Bft) 100,00 %
06.11.2016 14:52 4,1 C 97 % 1001,2 hPa 0,0 l/m 14,0 km/h (3 Bft) W 281 0 min 0,000 mm 0,0 UV-I 15 W/m 3,7 C -1,5 C 20,9 km/h (4 Bft) 100,00 %
06.11.2016 14:54 4,0 C 97 % 1001,2 hPa 0,2 l/m 13,4 km/h (3 Bft) W 264 0 min 0,000 mm 0,0 UV-I 14 W/m 3,6 C -1,2 C 24,1 km/h (4 Bft) 98,11 %
06.11.2016 14:56 4,0 C 96 % 1001,2 hPa 0,0 l/m 16,8 km/h (3 Bft) W-SW 252 0 min 0,000 mm 0,0 UV-I 14 W/m 3,4 C -3,0 C 24,1 km/h (4 Bft) 100,00 %
06.11.2016 14:58 3,9 C 96 % 1001,2 hPa 0,2 l/m 12,7 km/h (3 Bft) SW 220 0 min 0,000 mm 0,0 UV-I 18 W/m 3,3 C -0,9 C 19,3 km/h (3 Bft) 100,00 %
06.11.2016 15:00 3,9 C 96 % 1001,2 hPa 0,2 l/m 13,1 km/h (3 Bft) W-SW 257 0 min 0,000 mm 0,0 UV-I 19 W/m 3,3 C -1,2 C 19,3 km/h (3 Bft) 100,00 %
06.11.2016 15:02 3,8 C 96 % 1001,2 hPa 0,0 l/m 14,0 km/h (3 Bft) W 267 0 min 0,000 mm 0,0 UV-I 21 W/m 3,2 C -1,8 C 24,1 km/h (4 Bft) 97,73 %
06.11.2016 15:04 3,7 C 96 % 1001,3 hPa 0,2 l/m 11,8 km/h (2 Bft) W-SW 257 0 min 0,000 mm 0,0 UV-I 20 W/m 3,1 C -0,6 C 17,7 km/h (3 Bft) 95,12 %
06.11.2016 15:06 3,7 C 96 % 1001,3 hPa 0,2 l/m 17,6 km/h (3 Bft) W-SW 257 0 min 0,000 mm 0,0 UV-I 20 W/m 3,1 C -3,8 C 27,4 km/h (4 Bft) 98,11 %
06.11.2016 15:08 3,6 C 96 % 1001,5 hPa 0,2 l/m 13,4 km/h (3 Bft) W 263 0 min 0,000 mm 0,0 UV-I 16 W/m 3,0 C -1,7 C 19,3 km/h (3 Bft) 100,00 %
06.11.2016 15:10 3,4 C 96 % 1001,7 hPa 0,2 l/m 13,8 km/h (3 Bft) W 264 0 min 0,000 mm 0,0 UV-I 14 W/m 2,8 C -2,2 C 24,1 km/h (4 Bft) 100,00 %
06.11.2016 15:12 3,4 C 96 % 1001,7 hPa 0,0 l/m 14,9 km/h (3 Bft) W 272 0 min 0,000 mm 0,0 UV-I 14 W/m 2,8 C -2,8 C 27,4 km/h (4 Bft) 97,87 %
06.11.2016 15:14 3,3 C 96 % 1001,6 hPa 0,2 l/m 12,1 km/h (2 Bft) W 261 0 min 0,000 mm 0,0 UV-I 14 W/m 2,7 C -1,3 C 17,7 km/h (3 Bft) 100,00 %
06.11.2016 15:16 3,2 C 96 % 1001,6 hPa 0,2 l/m 12,7 km/h (3 Bft) W-SW 248 0 min 0,000 mm 0,0 UV-I 15 W/m 2,6 C -1,8 C 20,9 km/h (4 Bft) 100,00 %
06.11.2016 15:18 3,2 C 96 % 1001,7 hPa 0,0 l/m 9,9 km/h (2 Bft) W-SW 253 0 min 0,000 mm 0,0 UV-I 18 W/m 2,6 C 0,2 C 14,5 km/h (3 Bft) 100,00 %
06.11.2016 15:20 3,1 C 96 % 1001,7 hPa 0,2 l/m 19,1 km/h (3 Bft) W-SW 246 0 min 0,000 mm 0,0 UV-I 20 W/m 2,5 C -5,2 C 27,4 km/h (4 Bft) 98,44 %
06.11.2016 15:22 3,0 C 96 % 1001,7 hPa 0,0 l/m 14,4 km/h (3 Bft) W-SW 240 0 min 0,000 mm 0,0 UV-I 19 W/m 2,4 C -3,0 C 22,5 km/h (4 Bft) 97,22 %
06.11.2016 15:24 2,9 C 96 % 1001,9 hPa 0,2 l/m 15,9 km/h (3 Bft) W-SW 257 0 min 0,000 mm 0,0 UV-I 13 W/m 2,3 C -4,0 C 25,7 km/h (4 Bft) 98,11 %
06.11.2016 15:26 2,8 C 96 % 1002,0 hPa 0,0 l/m 14,0 km/h (3 Bft) W-SW 257 0 min 0,000 mm 0,0 UV-I 11 W/m 2,2 C -3,0 C 20,9 km/h (4 Bft) 100,00 %
06.11.2016 15:28 2,8 C 96 % 1001,9 hPa 0,2 l/m 16,1 km/h (3 Bft) W-SW 252 0 min 0,000 mm 0,0 UV-I 12 W/m 2,2 C -4,2 C 24,1 km/h (4 Bft) 97,87 %
06.11.2016 15:30 2,8 C 96 % 1001,9 hPa 0,2 l/m 15,2 km/h (3 Bft) W-SW 254 0 min 0,000 mm 0,0 UV-I 16 W/m 2,2 C -3,7 C 20,9 km/h (4 Bft) 100,00 %
06.11.2016 15:32 2,7 C 96 % 1001,9 hPa 0,0 l/m 12,6 km/h (3 Bft) W 259 0 min 0,000 mm 0,0 UV-I 20 W/m 2,1 C -2,3 C 19,3 km/h (3 Bft) 100,00 %
06.11.2016 15:34 2,7 C 96 % 1001,8 hPa 0,0 l/m 13,6 km/h (3 Bft) SW 236 0 min 0,000 mm 0,0 UV-I 17 W/m 2,1 C -2,9 C 20,9 km/h (4 Bft) 100,00 %
06.11.2016 15:36 2,7 C 96 % 1001,8 hPa 0,2 l/m 14,4 km/h (3 Bft) W 259 0 min 0,000 mm 0,0 UV-I 13 W/m 2,1 C -3,4 C 22,5 km/h (4 Bft) 98,11 %
06.11.2016 15:38 2,6 C 96 % 1001,9 hPa 0,0 l/m 15,0 km/h (3 Bft) W-SW 250 0 min 0,000 mm 0,0 UV-I 14 W/m 2,0 C -3,8 C 22,5 km/h (4 Bft) 100,00 %
06.11.2016 15:40 2,6 C 96 % 1001,9 hPa 0,2 l/m 13,5 km/h (3 Bft) W-SW 248 0 min 0,000 mm 0,0 UV-I 13 W/m 2,0 C -3,0 C 19,3 km/h (3 Bft) 100,00 %
06.11.2016 15:42 2,5 C 96 % 1001,8 hPa 0,0 l/m 15,5 km/h (3 Bft) W-SW 248 0 min 0,000 mm 0,0 UV-I 11 W/m 1,9 C -4,2 C 24,1 km/h (4 Bft) 100,00 %
06.11.2016 15:44 2,5 C 96 % 1001,7 hPa 0,0 l/m 11,9 km/h (2 Bft) W-SW 244 0 min 0,000 mm 0,0 UV-I 9 W/m 1,9 C -2,1 C 17,7 km/h (3 Bft) 100,00 %
06.11.2016 15:46 2,4 C 96 % 1001,7 hPa 0,0 l/m 13,8 km/h (3 Bft) W-SW 240 0 min 0,000 mm 0,0 UV-I 8 W/m 1,8 C -3,4 C 22,5 km/h (4 Bft) 98,21 %
06.11.2016 15:48 2,4 C 96 % 1001,7 hPa 0,0 l/m 11,1 km/h (2 Bft) W-SW 254 0 min 0,000 mm 0,0 UV-I 9 W/m 1,8 C -1,6 C 16,1 km/h (3 Bft) 95,45 %
06.11.2016 15:50 2,4 C 96 % 1001,8 hPa 0,2 l/m 8,3 km/h (2 Bft) W-SW 252 0 min 0,000 mm 0,0 UV-I 9 W/m 1,8 C 0,6 C 14,5 km/h (3 Bft) 100,00 %
06.11.2016 15:52 2,4 C 96 % 1001,8 hPa 0,0 l/m 8,4 km/h (2 Bft) W-SW 244 0 min 0,000 mm 0,0 UV-I 10 W/m 1,8 C 0,5 C 14,5 km/h (3 Bft) 96,00 %
06.11.2016 15:54 2,4 C 96 % 1001,7 hPa 0,0 l/m 14,4 km/h (3 Bft) W-SW 246 0 min 0,000 mm 0,0 UV-I 9 W/m 1,8 C -3,7 C 24,1 km/h (4 Bft) 98,00 %
06.11.2016 15:56 2,4 C 96 % 1001,8 hPa 0,2 l/m 11,4 km/h (2 Bft) S-SW 192 0 min 0,000 mm 0,0 UV-I 8 W/m 1,8 C -1,8 C 22,5 km/h (4 Bft) 100,00 %
06.11.2016 15:58 2,3 C 96 % 1001,8 hPa 0,0 l/m 14,4 km/h (3 Bft) W-SW 238 0 min 0,000 mm 0,0 UV-I 5 W/m 1,7 C -3,9 C 22,5 km/h (4 Bft) 100,00 %
06.11.2016 16:00 2,3 C 96 % 1001,8 hPa 0,0 l/m 14,7 km/h (3 Bft) W 275 0 min 0,000 mm 0,0 UV-I 5 W/m 1,7 C -4,0 C 20,9 km/h (4 Bft) 100,00 %
06.11.2016 16:02 2,3 C 96 % 1001,9 hPa 0,2 l/m 12,7 km/h (3 Bft) S-SW 196 0 min 0,000 mm 0,0 UV-I 5 W/m 1,7 C -2,8 C 19,3 km/h (3 Bft) 95,24 %
06.11.2016 16:04 2,3 C 96 % 1001,8 hPa 0,0 l/m 11,7 km/h (2 Bft) SW 232 0 min 0,000 mm 0,0 UV-I 5 W/m 1,7 C -2,1 C 19,3 km/h (3 Bft) 97,73 %
06.11.2016 16:06 2,3 C 96 % 1001,9 hPa 0,0 l/m 9,8 km/h (2 Bft) W-SW 239 0 min 0,000 mm 0,0 UV-I 5 W/m 1,7 C -0,8 C 19,3 km/h (3 Bft) 97,87 %
06.11.2016 16:08 2,2 C 96 % 1002,0 hPa 0,2 l/m 11,2 km/h (2 Bft) SW 236 0 min 0,000 mm 0,0 UV-I 5 W/m 1,6 C -1,9 C 16,1 km/h (3 Bft) 98,00 %
06.11.2016 16:10 2,2 C 96 % 1001,9 hPa 0,0 l/m 9,0 km/h (2 Bft) W-SW 248 0 min 0,000 mm 0,0 UV-I 5 W/m 1,6 C -0,2 C 14,5 km/h (3 Bft) 95,12 %
06.11.2016 16:12 2,2 C 96 % 1001,9 hPa 0,0 l/m 13,8 km/h (3 Bft) SW 232 0 min 0,000 mm 0,0 UV-I 5 W/m 1,6 C -3,6 C 19,3 km/h (3 Bft) 97,83 %
06.11.2016 16:14 2,2 C 96 % 1001,9 hPa 0,0 l/m 10,4 km/h (2 Bft) W-SW 248 0 min 0,000 mm 0,0 UV-I 5 W/m 1,6 C -1,3 C 17,7 km/h (3 Bft) 92,45 %
06.11.2016 16:16 2,2 C 96 % 1002,0 hPa 0,2 l/m 10,6 km/h (2 Bft) SW 234 0 min 0,000 mm 0,0 UV-I 5 W/m 1,6 C -1,5 C 16,1 km/h (3 Bft) 97,73 %
06.11.2016 16:18 2,2 C 96 % 1002,2 hPa 0,0 l/m 10,8 km/h (2 Bft) SW 223 0 min 0,000 mm 0,0 UV-I 5 W/m 1,6 C -1,6 C 17,7 km/h (3 Bft) 97,67 %
06.11.2016 16:20 2,1 C 96 % 1002,2 hPa 0,0 l/m 10,0 km/h (2 Bft) W 263 0 min 0,000 mm 0,0 UV-I 5 W/m 1,5 C -1,1 C 17,7 km/h (3 Bft) 98,11 %
06.11.2016 16:22 2,1 C 96 % 1002,2 hPa 0,2 l/m 12,1 km/h (2 Bft) W-SW 258 0 min 0,000 mm 0,0 UV-I 5 W/m 1,5 C -2,7 C 19,3 km/h (3 Bft) 95,74 %
06.11.2016 16:24 2,1 C 96 % 1002,3 hPa 0,0 l/m 9,0 km/h (2 Bft) SW 222 0 min 0,000 mm 0,0 UV-I 5 W/m 1,5 C -0,3 C 14,5 km/h (3 Bft) 93,62 %
06.11.2016 16:26 2,0 C 96 % 1002,4 hPa 0,0 l/m 11,7 km/h (2 Bft) S-SW 213 0 min 0,000 mm 0,0 UV-I 5 W/m 1,4 C -2,5 C 17,7 km/h (3 Bft) 96,55 %
06.11.2016 16:28 1,9 C 96 % 1002,4 hPa 0,0 l/m 14,2 km/h (3 Bft) W 269 0 min 0,000 mm 0,0 UV-I 5 W/m 1,3 C -4,2 C 22,5 km/h (4 Bft) 97,06 %
06.11.2016 16:30 1,9 C 96 % 1002,4 hPa 0,2 l/m 10,7 km/h (2 Bft) W-SW 241 0 min 0,000 mm 0,0 UV-I 0 W/m 1,3 C -1,9 C 17,7 km/h (3 Bft) 97,56 %
06.11.2016 16:32 1,9 C 96 % 1002,3 hPa 0,0 l/m 13,6 km/h (3 Bft) W-SW 254 0 min 0,000 mm 0,0 UV-I 0 W/m 1,3 C -3,9 C 17,7 km/h (3 Bft) 98,00 %
06.11.2016 16:34 1,8 C 96 % 1002,3 hPa 0,0 l/m 11,3 km/h (2 Bft) W-SW 244 0 min 0,000 mm 0,0 UV-I 0 W/m 1,2 C -2,4 C 16,1 km/h (3 Bft) 97,73 %
06.11.2016 16:36 1,8 C 97 % 1002,3 hPa 0,2 l/m 13,5 km/h (3 Bft) SW 234 0 min 0,000 mm 0,0 UV-I 0 W/m 1,4 C -3,9 C 19,3 km/h (3 Bft) 100,00 %
06.11.2016 16:38 1,8 C 97 % 1002,2 hPa 0,0 l/m 9,8 km/h (2 Bft) SW 230 0 min 0,000 mm 0,0 UV-I 0 W/m 1,4 C -1,3 C 19,3 km/h (3 Bft) 97,87 %
06.11.2016 16:40 1,8 C 97 % 1002,2 hPa 0,0 l/m 10,4 km/h (2 Bft) W 279 0 min 0,000 mm 0,0 UV-I 0 W/m 1,4 C -1,8 C 16,1 km/h (3 Bft) 98,00 %
06.11.2016 16:43 1,8 C 97 % 1002,2 hPa 0,0 l/m 11,2 km/h (2 Bft) W 264 0 min 0,000 mm 0,0 UV-I 0 W/m 1,4 C -2,4 C 17,7 km/h (3 Bft) 100,00 %
06.11.2016 16:44 1,8 C 97 % 1002,2 hPa 0,0 l/m 7,4 km/h (2 Bft) SW 236 0 min 0,000 mm 0,0 UV-I 0 W/m 1,4 C 0,8 C 11,3 km/h (2 Bft) 100,00 %
06.11.2016 16:46 1,8 C 97 % 1002,1 hPa 0,0 l/m 8,4 km/h (2 Bft) W 271 0 min 0,000 mm 0,0 UV-I 0 W/m 1,4 C -0,1 C 16,1 km/h (3 Bft) 100,00 %
06.11.2016 16:48 1,8 C 97 % 1002,0 hPa 0,0 l/m 7,1 km/h (2 Bft) SW 236 0 min 0,000 mm 0,0 UV-I 0 W/m 1,4 C 1,1 C 12,9 km/h (3 Bft) 96,23 %
06.11.2016 16:50 1,8 C 97 % 1002,0 hPa 0,0 l/m 9,7 km/h (2 Bft) W-SW 244 0 min 0,000 mm 0,0 UV-I 0 W/m 1,4 C -1,2 C 14,5 km/h (3 Bft) 100,00 %
06.11.2016 16:52 1,8 C 97 % 1001,8 hPa 0,2 l/m 7,3 km/h (2 Bft) W-SW 238 0 min 0,000 mm 0,0 UV-I 0 W/m 1,4 C 0,9 C 12,9 km/h (3 Bft) 100,00 %
06.11.2016 16:54 1,8 C 97 % 1001,9 hPa 0,0 l/m 7,7 km/h (2 Bft) W-SW 242 0 min 0,000 mm 0,0 UV-I 0 W/m 1,4 C 0,5 C 11,3 km/h (2 Bft) 100,00 %
06.11.2016 16:56 1,8 C 97 % 1002,0 hPa 0,0 l/m 7,9 km/h (2 Bft) W 262 0 min 0,000 mm 0,0 UV-I 0 W/m 1,4 C 0,3 C 11,3 km/h (2 Bft) 100,00 %
06.11.2016 16:58 1,8 C 97 % 1002,1 hPa 0,0 l/m 9,3 km/h (2 Bft) SW 226 0 min 0,000 mm 0,0 UV-I 0 W/m 1,4 C -0,9 C 14,5 km/h (3 Bft) 100,00 %
06.11.2016 17:00 1,8 C 97 % 1002,2 hPa 0,0 l/m 8,6 km/h (2 Bft) W-SW 241 0 min 0,000 mm 0,0 UV-I 0 W/m 1,4 C -0,3 C 14,5 km/h (3 Bft) 100,00 %
06.11.2016 17:02 1,8 C 97 % 1002,0 hPa 0,0 l/m 7,4 km/h (2 Bft) W-SW 249 0 min 0,000 mm 0,0 UV-I 0 W/m 1,4 C 0,8 C 11,3 km/h (2 Bft) 100,00 %
06.11.2016 17:04 1,8 C 97 % 1001,9 hPa 0,0 l/m 6,9 km/h (2 Bft) SW 235 0 min 0,000 mm 0,0 UV-I 0 W/m 1,4 C 1,3 C 11,3 km/h (2 Bft) 100,00 %
06.11.2016 17:06 1,8 C 97 % 1001,9 hPa 0,0 l/m 7,6 km/h (2 Bft) W 259 0 min 0,000 mm 0,0 UV-I 0 W/m 1,4 C 0,6 C 9,7 km/h (2 Bft) 100,00 %
06.11.2016 17:08 1,8 C 97 % 1001,9 hPa 0,0 l/m 5,6 km/h (1 Bft) W-SW 246 0 min 0,000 mm 0,0 UV-I 0 W/m 1,4 C 1,8 C 9,7 km/h (2 Bft) 96,23 %
06.11.2016 17:10 1,8 C 97 % 1002,0 hPa 0,2 l/m 6,1 km/h (2 Bft) W-SW 244 0 min 0,000 mm 0,0 UV-I 0 W/m 1,4 C 1,8 C 8,0 km/h (2 Bft) 100,00 %
06.11.2016 17:12 1,8 C 97 % 1002,0 hPa 0,0 l/m 5,2 km/h (1 Bft) W-SW 247 0 min 0,000 mm 0,0 UV-I 0 W/m 1,4 C 1,8 C 6,4 km/h (2 Bft) 100,00 %
06.11.2016 17:14 1,9 C 97 % 1002,1 hPa 0,0 l/m 5,4 km/h (1 Bft) W-SW 242 0 min 0,000 mm 0,0 UV-I 0 W/m 1,5 C 1,9 C 8,0 km/h (2 Bft) 100,00 %
06.11.2016 17:16 1,9 C 97 % 1002,3 hPa 0,0 l/m 6,9 km/h (2 Bft) W-SW 240 0 min 0,000 mm 0,0 UV-I 0 W/m 1,5 C 1,4 C 11,3 km/h (2 Bft) 97,56 %
06.11.2016 17:18 1,9 C 97 % 1002,3 hPa 0,0 l/m 8,4 km/h (2 Bft) W 277 0 min 0,000 mm 0,0 UV-I 0 W/m 1,5 C -0,0 C 11,3 km/h (2 Bft) 100,00 %
06.11.2016 17:20 1,8 C 97 % 1002,3 hPa 0,2 l/m 10,7 km/h (2 Bft) SW 219 0 min 0,000 mm 0,0 UV-I 0 W/m 1,4 C -2,0 C 16,1 km/h (3 Bft) 100,00 %
06.11.2016 17:23 1,8 C 97 % 1002,3 hPa 0,0 l/m 10,2 km/h (2 Bft) SW 236 0 min 0,000 mm 0,0 UV-I 0 W/m 1,4 C -1,6 C 17,7 km/h (3 Bft) 100,00 %
06.11.2016 17:24 1,8 C 97 % 1002,3 hPa 0,0 l/m 11,3 km/h (2 Bft) SW 234 0 min 0,000 mm 0,0 UV-I 0 W/m 1,4 C -2,4 C 14,5 km/h (3 Bft) 100,00 %
06.11.2016 17:26 1,7 C 97 % 1002,3 hPa 0,2 l/m 7,3 km/h (2 Bft) W-SW 253 0 min 0,000 mm 0,0 UV-I 0 W/m 1,3 C 0,8 C 14,5 km/h (3 Bft) 100,00 %
06.11.2016 17:28 1,7 C 97 % 1002,3 hPa 0,0 l/m 8,1 km/h (2 Bft) SW 219 0 min 0,000 mm 0,0 UV-I 0 W/m 1,3 C 0,0 C 12,9 km/h (3 Bft) 100,00 %
06.11.2016 17:30 1,6 C 97 % 1002,5 hPa 0,0 l/m 12,1 km/h (2 Bft) SW 220 0 min 0,000 mm 0,0 UV-I 0 W/m 1,2 C -3,2 C 17,7 km/h (3 Bft) 100,00 %
06.11.2016 17:33 1,5 C 97 % 1002,7 hPa 0,0 l/m 11,6 km/h (2 Bft) W-SW 244 0 min 0,000 mm 0,0 UV-I 0 W/m 1,1 C -3,0 C 17,7 km/h (3 Bft) 98,51 %
06.11.2016 17:34 1,5 C 97 % 1002,7 hPa 0,0 l/m 13,8 km/h (3 Bft) W-SW 246 0 min 0,000 mm 0,0 UV-I 0 W/m 1,1 C -4,4 C 19,3 km/h (3 Bft) 100,00 %
06.11.2016 17:36 1,4 C 97 % 1002,8 hPa 0,0 l/m 12,8 km/h (3 Bft) SW 219 0 min 0,000 mm 0,0 UV-I 0 W/m 1,0 C -3,9 C 17,7 km/h (3 Bft) 100,00 %
06.11.2016 17:38 1,4 C 97 % 1002,8 hPa 0,2 l/m 11,3 km/h (2 Bft) SW 234 0 min 0,000 mm 0,0 UV-I 0 W/m 1,0 C -2,9 C 19,3 km/h (3 Bft) 100,00 %
06.11.2016 17:40 1,3 C 97 % 1002,8 hPa 0,0 l/m 11,7 km/h (2 Bft) W-SW 250 0 min 0,000 mm 0,0 UV-I 0 W/m 0,9 C -3,3 C 19,3 km/h (3 Bft) 100,00 %
06.11.2016 17:42 1,3 C 97 % 1002,7 hPa 0,0 l/m 10,4 km/h (2 Bft) W-SW 248 0 min 0,000 mm 0,0 UV-I 0 W/m 0,9 C -2,3 C 14,5 km/h (3 Bft) 100,00 %
06.11.2016 17:44 1,2 C 97 % 1002,7 hPa 0,0 l/m 7,8 km/h (2 Bft) W-SW 243 0 min 0,000 mm 0,0 UV-I 0 W/m 0,8 C -0,2 C 12,9 km/h (3 Bft) 98,11 %
06.11.2016 17:46 1,1 C 97 % 1002,6 hPa 0,0 l/m 10,2 km/h (2 Bft) W 260 0 min 0,000 mm 0,0 UV-I 0 W/m 0,7 C -2,4 C 14,5 km/h (3 Bft) 97,56 %
06.11.2016 17:48 1,1 C 97 % 1002,7 hPa 0,0 l/m 8,9 km/h (2 Bft) W-SW 245 0 min 0,000 mm 0,0 UV-I 0 W/m 0,7 C -1,3 C 12,9 km/h (3 Bft) 100,00 %
06.11.2016 17:50 1,0 C 97 % 1002,6 hPa 0,0 l/m 9,0 km/h (2 Bft) W-SW 252 0 min 0,000 mm 0,0 UV-I 0 W/m 0,6 C -1,5 C 12,9 km/h (3 Bft) 96,55 %
06.11.2016 17:52 0,9 C 97 % 1002,6 hPa 0,0 l/m 7,5 km/h (2 Bft) W-SW 239 0 min 0,000 mm 0,0 UV-I 0 W/m 0,5 C -0,2 C 12,9 km/h (3 Bft) 98,39 %
06.11.2016 17:54 0,9 C 97 % 1002,7 hPa 0,0 l/m 6,7 km/h (2 Bft) SW 217 0 min 0,000 mm 0,0 UV-I 0 W/m 0,5 C 0,6 C 11,3 km/h (2 Bft) 97,87 %
06.11.2016 17:56 0,9 C 97 % 1002,8 hPa 0,0 l/m 7,1 km/h (2 Bft) W-SW 249 0 min 0,000 mm 0,0 UV-I 0 W/m 0,5 C 0,2 C 12,9 km/h (3 Bft) 100,00 %
06.11.2016 17:58 0,8 C 97 % 1002,7 hPa 0,2 l/m 6,3 km/h (2 Bft) W-SW 244 0 min 0,000 mm 0,0 UV-I 0 W/m 0,4 C 0,8 C 9,7 km/h (2 Bft) 96,23 %
06.11.2016 18:00 0,8 C 97 % 1002,7 hPa 0,0 l/m 7,2 km/h (2 Bft) SW 232 0 min 0,000 mm 0,0 UV-I 0 W/m 0,4 C -0,0 C 9,7 km/h (2 Bft) 100,00 %
06.11.2016 18:02 0,8 C 97 % 1002,9 hPa 0,0 l/m 9,2 km/h (2 Bft) SW 221 0 min 0,000 mm 0,0 UV-I 0 W/m 0,4 C -1,9 C 12,9 km/h (3 Bft) 98,08 %
06.11.2016 18:04 0,8 C 97 % 1003,0 hPa 0,0 l/m 7,7 km/h (2 Bft) W-SW 237 0 min 0,000 mm 0,0 UV-I 0 W/m 0,4 C -0,5 C 11,3 km/h (2 Bft) 97,44 %
06.11.2016 18:06 0,8 C 97 % 1002,9 hPa 0,0 l/m 7,1 km/h (2 Bft) SW 221 0 min 0,000 mm 0,0 UV-I 0 W/m 0,4 C 0,1 C 12,9 km/h (3 Bft) 98,00 %
06.11.2016 18:08 0,8 C 97 % 1002,9 hPa 0,0 l/m 5,5 km/h (1 Bft) W-SW 239 0 min 0,000 mm 0,0 UV-I 0 W/m 0,4 C 0,8 C 8,0 km/h (2 Bft) 97,87 %
06.11.2016 18:10 0,8 C 97 % 1002,9 hPa 0,0 l/m 7,0 km/h (2 Bft) W-SW 241 0 min 0,000 mm 0,0 UV-I 0 W/m 0,4 C 0,2 C 11,3 km/h (2 Bft) 97,87 %
06.11.2016 18:12 0,8 C 97 % 1003,0 hPa 0,0 l/m 6,2 km/h (2 Bft) W-SW 241 0 min 0,000 mm 0,0 UV-I 0 W/m 0,4 C 0,8 C 9,7 km/h (2 Bft) 96,00 %
06.11.2016 18:14 0,7 C 97 % 1002,9 hPa 0,0 l/m 6,9 km/h (2 Bft) SW 224 0 min 0,000 mm 0,0 UV-I 0 W/m 0,3 C 0,2 C 9,7 km/h (2 Bft) 97,56 %
06.11.2016 18:16 0,7 C 97 % 1002,9 hPa 0,0 l/m 6,0 km/h (2 Bft) W-SW 256 0 min 0,000 mm 0,0 UV-I 0 W/m 0,3 C 0,7 C 9,7 km/h (2 Bft) 100,00 %
06.11.2016 18:18 0,6 C 97 % 1002,8 hPa 0,0 l/m 5,3 km/h (1 Bft) SW 229 0 min 0,000 mm 0,0 UV-I 0 W/m 0,2 C 0,6 C 8,0 km/h (2 Bft) 96,43 %
06.11.2016 18:20 0,6 C 97 % 1002,8 hPa 0,0 l/m 6,3 km/h (2 Bft) W-SW 238 0 min 0,000 mm 0,0 UV-I 0 W/m 0,2 C 0,6 C 9,7 km/h (2 Bft) 98,00 %
06.11.2016 18:22 0,6 C 97 % 1002,8 hPa 0,0 l/m 5,4 km/h (1 Bft) SW 232 0 min 0,000 mm 0,0 UV-I 0 W/m 0,2 C 0,6 C 11,3 km/h (2 Bft) 95,74 %
06.11.2016 18:24 0,6 C 97 % 1002,7 hPa 0,0 l/m 6,9 km/h (2 Bft) SW 229 0 min 0,000 mm 0,0 UV-I 0 W/m 0,2 C 0,1 C 11,3 km/h (2 Bft) 97,37 %
06.11.2016 18:26 0,5 C 97 % 1002,6 hPa 0,0 l/m 6,6 km/h (2 Bft) W-SW 237 0 min 0,000 mm 0,0 UV-I 0 W/m 0,1 C 0,3 C 11,3 km/h (2 Bft) 98,11 %
06.11.2016 18:28 0,5 C 97 % 1002,7 hPa 0,0 l/m 5,6 km/h (1 Bft) S-SW 209 0 min 0,000 mm 0,0 UV-I 0 W/m 0,1 C 0,5 C 8,0 km/h (2 Bft) 94,00 %
06.11.2016 18:30 0,5 C 97 % 1002,8 hPa 0,0 l/m 6,7 km/h (2 Bft) W-SW 253 0 min 0,000 mm 0,0 UV-I 0 W/m 0,1 C 0,2 C 9,7 km/h (2 Bft) 92,68 %
06.11.2016 18:32 0,5 C 97 % 1002,7 hPa 0,0 l/m 6,0 km/h (2 Bft) SW 219 0 min 0,000 mm 0,0 UV-I 0 W/m 0,1 C 0,5 C 8,0 km/h (2 Bft) 96,23 %
06.11.2016 18:34 0,5 C 97 % 1002,8 hPa 0,0 l/m 6,4 km/h (2 Bft) S-SW 210 0 min 0,000 mm 0,0 UV-I 0 W/m 0,1 C 0,5 C 9,7 km/h (2 Bft) 97,37 %
06.11.2016 18:36 0,5 C 97 % 1002,8 hPa 0,0 l/m 6,2 km/h (2 Bft) SW 215 0 min 0,000 mm 0,0 UV-I 0 W/m 0,1 C 0,5 C 9,7 km/h (2 Bft) 97,87 %
06.11.2016 18:38 0,5 C 97 % 1002,8 hPa 0,0 l/m 6,4 km/h (2 Bft) SW 219 0 min 0,000 mm 0,0 UV-I 0 W/m 0,1 C 0,5 C 9,7 km/h (2 Bft) 98,00 %
06.11.2016 18:40 0,6 C 97 % 1002,7 hPa 0,0 l/m 5,8 km/h (2 Bft) W-SW 246 0 min 0,000 mm 0,0 UV-I 0 W/m 0,2 C 0,6 C 8,0 km/h (2 Bft) 97,87 %
06.11.2016 18:42 0,5 C 97 % 1002,8 hPa 0,0 l/m 6,0 km/h (2 Bft) SW 221 0 min 0,000 mm 0,0 UV-I 0 W/m 0,1 C 0,5 C 8,0 km/h (2 Bft) 98,11 %
06.11.2016 18:44 0,6 C 97 % 1002,7 hPa 0,0 l/m 6,3 km/h (2 Bft) W-SW 241 0 min 0,000 mm 0,0 UV-I 0 W/m 0,2 C 0,6 C 9,7 km/h (2 Bft) 97,44 %
06.11.2016 18:46 0,6 C 97 % 1002,6 hPa 0,0 l/m 6,3 km/h (2 Bft) W-SW 252 0 min 0,000 mm 0,0 UV-I 0 W/m 0,2 C 0,6 C 8,0 km/h (2 Bft) 100,00 %
06.11.2016 18:48 0,6 C 97 % 1002,5 hPa 0,0 l/m 5,3 km/h (1 Bft) W-SW 244 0 min 0,000 mm 0,0 UV-I 0 W/m 0,2 C 0,6 C 6,4 km/h (2 Bft) 97,87 %
06.11.2016 18:50 0,6 C 97 % 1002,6 hPa 0,0 l/m 7,0 km/h (2 Bft) SW 234 0 min 0,000 mm 0,0 UV-I 0 W/m 0,2 C -0,0 C 9,7 km/h (2 Bft) 94,74 %
06.11.2016 18:52 0,5 C 97 % 1002,6 hPa 0,0 l/m 5,7 km/h (1 Bft) W 263 0 min 0,000 mm 0,0 UV-I 0 W/m 0,1 C 0,5 C 8,0 km/h (2 Bft) 100,00 %
06.11.2016 18:54 0,5 C 97 % 1002,5 hPa 0,0 l/m 5,1 km/h (1 Bft) W-SW 245 0 min 0,000 mm 0,0 UV-I 0 W/m 0,1 C 0,5 C 6,4 km/h (2 Bft) 100,00 %
06.11.2016 18:56 0,6 C 97 % 1002,5 hPa 0,0 l/m 6,1 km/h (2 Bft) S-SW 211 0 min 0,000 mm 0,0 UV-I 0 W/m 0,2 C 0,6 C 8,0 km/h (2 Bft) 100,00 %
06.11.2016 18:58 0,6 C 97 % 1002,5 hPa 0,0 l/m 5,9 km/h (2 Bft) SW 224 0 min 0,000 mm 0,0 UV-I 0 W/m 0,2 C 0,6 C 8,0 km/h (2 Bft) 98,11 %
06.11.2016 19:00 0,6 C 98 % 1002,4 hPa 0,0 l/m 5,0 km/h (1 Bft) SW 235 0 min 0,000 mm 0,0 UV-I 0 W/m 0,3 C 0,6 C 6,4 km/h (2 Bft) 97,37 %
06.11.2016 19:02 0,6 C 98 % 1002,5 hPa 0,0 l/m 5,1 km/h (1 Bft) SW 228 0 min 0,000 mm 0,0 UV-I 0 W/m 0,3 C 0,6 C 6,4 km/h (2 Bft) 98,11 %
06.11.2016 19:04 0,6 C 98 % 1002,5 hPa 0,0 l/m 5,9 km/h (2 Bft) W-SW 237 0 min 0,000 mm 0,0 UV-I 0 W/m 0,3 C 0,6 C 8,0 km/h (2 Bft) 98,00 %
06.11.2016 19:06 0,6 C 98 % 1002,4 hPa 0,0 l/m 5,5 km/h (1 Bft) SW 220 0 min 0,000 mm 0,0 UV-I 0 W/m 0,3 C 0,6 C 8,0 km/h (2 Bft) 98,00 %
06.11.2016 19:08 0,6 C 98 % 1002,4 hPa 0,0 l/m 5,2 km/h (1 Bft) SW 223 0 min 0,000 mm 0,0 UV-I 0 W/m 0,3 C 0,6 C 6,4 km/h (2 Bft) 100,00 %
06.11.2016 19:10 0,6 C 98 % 1002,5 hPa 0,0 l/m 5,7 km/h (1 Bft) SW 236 0 min 0,000 mm 0,0 UV-I 0 W/m 0,3 C 0,6 C 8,0 km/h (2 Bft) 100,00 %
06.11.2016 19:12 0,6 C 98 % 1002,5 hPa 0,0 l/m 5,6 km/h (1 Bft) W-SW 247 0 min 0,000 mm 0,0 UV-I 0 W/m 0,3 C 0,6 C 8,0 km/h (2 Bft) 100,00 %
06.11.2016 19:14 0,6 C 98 % 1002,4 hPa 0,0 l/m 5,3 km/h (1 Bft) W-SW 238 0 min 0,000 mm 0,0 UV-I 0 W/m 0,3 C 0,6 C 6,4 km/h (2 Bft) 100,00 %
06.11.2016 19:16 0,6 C 98 % 1002,4 hPa 0,0 l/m 4,9 km/h (1 Bft) SW 234 0 min 0,000 mm 0,0 UV-I 0 W/m 0,3 C 0,6 C 6,4 km/h (2 Bft) 100,00 %
06.11.2016 19:18 0,6 C 98 % 1002,2 hPa 0,2 l/m 4,3 km/h (1 Bft) SW 219 0 min 0,000 mm 0,0 UV-I 0 W/m 0,3 C 0,6 C 6,4 km/h (2 Bft) 100,00 %
06.11.2016 19:20 0,6 C 98 % 1002,1 hPa 0,0 l/m 4,6 km/h (1 Bft) SW 234 0 min 0,000 mm 0,0 UV-I 0 W/m 0,3 C 0,6 C 8,0 km/h (2 Bft) 100,00 %
06.11.2016 19:22 0,6 C 98 % 1002,0 hPa 0,0 l/m 4,3 km/h (1 Bft) W-SW 257 0 min 0,000 mm 0,0 UV-I 0 W/m 0,3 C 0,6 C 6,4 km/h (2 Bft) 100,00 %
06.11.2016 19:24 0,6 C 98 % 1002,0 hPa 0,0 l/m 5,2 km/h (1 Bft) W-SW 243 0 min 0,000 mm 0,0 UV-I 0 W/m 0,3 C 0,6 C 8,0 km/h (2 Bft) 96,15 %
06.11.2016 19:26 0,6 C 98 % 1002,1 hPa 0,0 l/m 4,6 km/h (1 Bft) SW 234 0 min 0,000 mm 0,0 UV-I 0 W/m 0,3 C 0,6 C 6,4 km/h (2 Bft) 100,00 %
06.11.2016 19:28 0,6 C 98 % 1002,3 hPa 0,0 l/m 5,8 km/h (2 Bft) SW 223 0 min 0,000 mm 0,0 UV-I 0 W/m 0,3 C 0,6 C 9,7 km/h (2 Bft) 100,00 %
06.11.2016 19:30 0,6 C 98 % 1002,4 hPa 0,2 l/m 6,4 km/h (2 Bft) SW 228 0 min 0,000 mm 0,0 UV-I 0 W/m 0,3 C 0,6 C 8,0 km/h (2 Bft) 100,00 %
06.11.2016 19:32 0,6 C 98 % 1002,6 hPa 0,0 l/m 7,3 km/h (2 Bft) SW 234 0 min 0,000 mm 0,0 UV-I 0 W/m 0,3 C -0,3 C 12,9 km/h (3 Bft) 100,00 %
06.11.2016 19:34 0,7 C 98 % 1002,7 hPa 0,0 l/m 8,8 km/h (2 Bft) S-SW 204 0 min 0,000 mm 0,0 UV-I 0 W/m 0,4 C -1,7 C 12,9 km/h (3 Bft) 100,00 %
06.11.2016 19:36 0,7 C 98 % 1002,8 hPa 0,0 l/m 8,0 km/h (2 Bft) SW 222 0 min 0,000 mm 0,0 UV-I 0 W/m 0,4 C -0,9 C 11,3 km/h (2 Bft) 100,00 %
06.11.2016 19:38 0,7 C 98 % 1002,7 hPa 0,0 l/m 7,7 km/h (2 Bft) SW 227 0 min 0,000 mm 0,0 UV-I 0 W/m 0,4 C -0,6 C 12,9 km/h (3 Bft) 97,73 %
06.11.2016 19:40 0,7 C 98 % 1002,7 hPa 0,0 l/m 7,1 km/h (2 Bft) SW 236 0 min 0,000 mm 0,0 UV-I 0 W/m 0,4 C -0,0 C 9,7 km/h (2 Bft) 100,00 %
06.11.2016 19:42 0,7 C 98 % 1002,7 hPa 0,0 l/m 5,9 km/h (2 Bft) W-SW 242 0 min 0,000 mm 0,0 UV-I 0 W/m 0,4 C 0,7 C 8,0 km/h (2 Bft) 98,00 %
06.11.2016 19:44 0,7 C 98 % 1002,6 hPa 0,2 l/m 5,5 km/h (1 Bft) SW 223 0 min 0,000 mm 0,0 UV-I 0 W/m 0,4 C 0,7 C 8,0 km/h (2 Bft) 100,00 %
06.11.2016 19:46 0,7 C 98 % 1002,6 hPa 0,0 l/m 5,7 km/h (1 Bft) W-SW 245 0 min 0,000 mm 0,0 UV-I 0 W/m 0,4 C 0,7 C 9,7 km/h (2 Bft) 100,00 %
06.11.2016 19:48 0,8 C 98 % 1002,6 hPa 0,0 l/m 5,8 km/h (2 Bft) W-SW 240 0 min 0,000 mm 0,0 UV-I 0 W/m 0,5 C 0,8 C 8,0 km/h (2 Bft) 100,00 %
06.11.2016 19:50 0,8 C 98 % 1002,6 hPa 0,0 l/m 5,5 km/h (1 Bft) W-SW 246 0 min 0,000 mm 0,0 UV-I 0 W/m 0,5 C 0,8 C 8,0 km/h (2 Bft) 100,00 %
06.11.2016 19:52 0,8 C 98 % 1002,6 hPa 0,0 l/m 5,0 km/h (1 Bft) SW 223 0 min 0,000 mm 0,0 UV-I 0 W/m 0,5 C 0,8 C 6,4 km/h (2 Bft) 97,73 %
06.11.2016 19:54 0,8 C 98 % 1002,5 hPa 0,2 l/m 4,8 km/h (1 Bft) SW 232 0 min 0,000 mm 0,0 UV-I 0 W/m 0,5 C 0,8 C 8,0 km/h (2 Bft) 97,87 %
06.11.2016 19:56 0,8 C 98 % 1002,6 hPa 0,0 l/m 5,2 km/h (1 Bft) W-SW 240 0 min 0,000 mm 0,0 UV-I 0 W/m 0,5 C 0,8 C 8,0 km/h (2 Bft) 98,11 %
06.11.2016 19:58 0,8 C 98 % 1002,6 hPa 0,0 l/m 5,2 km/h (1 Bft) W-SW 238 0 min 0,000 mm 0,0 UV-I 0 W/m 0,5 C 0,8 C 8,0 km/h (2 Bft) 98,00 %
06.11.2016 20:00 0,9 C 98 % 1002,9 hPa 0,0 l/m 5,2 km/h (1 Bft) SW 232 0 min 0,000 mm 0,0 UV-I 0 W/m 0,6 C 0,9 C 9,7 km/h (2 Bft) 100,00 %
06.11.2016 20:02 0,9 C 98 % 1003,0 hPa 0,0 l/m 5,6 km/h (1 Bft) SW 234 0 min 0,000 mm 0,0 UV-I 0 W/m 0,6 C 0,9 C 8,0 km/h (2 Bft) 98,00 %
06.11.2016 20:04 0,9 C 98 % 1003,1 hPa 0,0 l/m 6,5 km/h (2 Bft) SW 225 0 min 0,000 mm 0,0 UV-I 0 W/m 0,6 C 0,8 C 9,7 km/h (2 Bft) 100,00 %
06.11.2016 20:06 0,9 C 98 % 1003,2 hPa 0,2 l/m 7,2 km/h (2 Bft) SW 223 0 min 0,000 mm 0,0 UV-I 0 W/m 0,6 C 0,1 C 11,3 km/h (2 Bft) 96,23 %
06.11.2016 20:08 0,9 C 98 % 1003,2 hPa 0,0 l/m 7,4 km/h (2 Bft) SW 225 0 min 0,000 mm 0,0 UV-I 0 W/m 0,6 C -0,1 C 9,7 km/h (2 Bft) 100,00 %
06.11.2016 20:10 0,9 C 98 % 1003,1 hPa 0,0 l/m 7,5 km/h (2 Bft) SW 227 0 min 0,000 mm 0,0 UV-I 0 W/m 0,6 C -0,2 C 11,3 km/h (2 Bft) 100,00 %
06.11.2016 20:12 1,0 C 98 % 1003,1 hPa 0,0 l/m 6,7 km/h (2 Bft) W-SW 244 0 min 0,000 mm 0,0 UV-I 0 W/m 0,7 C 0,7 C 11,3 km/h (2 Bft) 97,73 %
06.11.2016 20:14 1,0 C 98 % 1003,1 hPa 0,2 l/m 6,7 km/h (2 Bft) SW 225 0 min 0,000 mm 0,0 UV-I 0 W/m 0,7 C 0,7 C 11,3 km/h (2 Bft) 95,12 %
06.11.2016 20:16 1,0 C 98 % 1003,1 hPa 0,0 l/m 5,5 km/h (1 Bft) W-SW 248 0 min 0,000 mm 0,0 UV-I 0 W/m 0,7 C 1,0 C 8,0 km/h (2 Bft) 96,23 %
06.11.2016 20:18 1,1 C 98 % 1003,1 hPa 0,0 l/m 6,2 km/h (2 Bft) W-SW 242 0 min 0,000 mm 0,0 UV-I 0 W/m 0,8 C 1,1 C 8,0 km/h (2 Bft) 98,00 %
06.11.2016 20:20 1,1 C 98 % 1003,0 hPa 0,0 l/m 6,0 km/h (2 Bft) W-SW 250 0 min 0,000 mm 0,0 UV-I 0 W/m 0,8 C 1,1 C 9,7 km/h (2 Bft) 98,00 %
06.11.2016 20:22 1,1 C 98 % 1002,9 hPa 0,0 l/m 5,3 km/h (1 Bft) W-SW 242 0 min 0,000 mm 0,0 UV-I 0 W/m 0,8 C 1,1 C 8,0 km/h (2 Bft) 97,87 %
06.11.2016 20:24 1,1 C 98 % 1002,8 hPa 0,2 l/m 7,3 km/h (2 Bft) W-SW 238 0 min 0,000 mm 0,0 UV-I 0 W/m 0,8 C 0,2 C 11,3 km/h (2 Bft) 97,56 %
06.11.2016 20:26 1,1 C 98 % 1002,7 hPa 0,0 l/m 5,5 km/h (1 Bft) W-SW 252 0 min 0,000 mm 0,0 UV-I 0 W/m 0,8 C 1,1 C 6,4 km/h (2 Bft) 97,56 %
06.11.2016 20:28 1,1 C 98 % 1002,7 hPa 0,0 l/m 5,4 km/h (1 Bft) W-SW 254 0 min 0,000 mm 0,0 UV-I 0 W/m 0,8 C 1,1 C 9,7 km/h (2 Bft) 98,11 %
06.11.2016 20:30 1,1 C 98 % 1002,8 hPa 0,0 l/m 6,4 km/h (2 Bft) W-SW 258 0 min 0,000 mm 0,0 UV-I 0 W/m 0,8 C 1,1 C 9,7 km/h (2 Bft) 97,87 %
06.11.2016 20:32 1,2 C 98 % 1002,9 hPa 0,2 l/m 6,1 km/h (2 Bft) W-SW 238 0 min 0,000 mm 0,0 UV-I 0 W/m 0,9 C 1,2 C 9,7 km/h (2 Bft) 93,62 %
06.11.2016 20:34 1,2 C 98 % 1003,1 hPa 0,0 l/m 8,0 km/h (2 Bft) SW 230 0 min 0,000 mm 0,0 UV-I 0 W/m 0,9 C -0,4 C 12,9 km/h (3 Bft) 98,00 %
06.11.2016 20:36 1,2 C 98 % 1003,3 hPa 0,0 l/m 5,4 km/h (1 Bft) SW 219 0 min 0,000 mm 0,0 UV-I 0 W/m 0,9 C 1,2 C 9,7 km/h (2 Bft) 96,00 %
06.11.2016 20:38 1,2 C 98 % 1003,3 hPa 0,0 l/m 5,5 km/h (1 Bft) W-SW 242 0 min 0,000 mm 0,0 UV-I 0 W/m 0,9 C 1,2 C 9,7 km/h (2 Bft) 97,37 %
06.11.2016 20:40 1,2 C 98 % 1003,4 hPa 0,2 l/m 8,6 km/h (2 Bft) SW 226 0 min 0,000 mm 0,0 UV-I 0 W/m 0,9 C -0,9 C 14,5 km/h (3 Bft) 94,34 %
06.11.2016 20:42 1,2 C 98 % 1003,3 hPa 0,0 l/m 7,3 km/h (2 Bft) W-SW 254 0 min 0,000 mm 0,0 UV-I 0 W/m 0,9 C 0,3 C 12,9 km/h (3 Bft) 97,62 %
06.11.2016 20:44 1,2 C 98 % 1003,2 hPa 0,0 l/m 6,0 km/h (2 Bft) W-SW 250 0 min 0,000 mm 0,0 UV-I 0 W/m 0,9 C 1,2 C 8,0 km/h (2 Bft) 98,00 %
06.11.2016 20:46 1,2 C 98 % 1003,1 hPa 0,0 l/m 4,5 km/h (1 Bft) SW 232 0 min 0,000 mm 0,0 UV-I 0 W/m 0,9 C 1,2 C 6,4 km/h (2 Bft) 97,87 %
06.11.2016 20:48 1,2 C 98 % 1003,2 hPa 0,2 l/m 5,3 km/h (1 Bft) SW 235 0 min 0,000 mm 0,0 UV-I 0 W/m 0,9 C 1,2 C 8,0 km/h (2 Bft) 98,00 %
06.11.2016 20:50 1,3 C 98 % 1003,3 hPa 0,0 l/m 5,7 km/h (1 Bft) SW 220 0 min 0,000 mm 0,0 UV-I 0 W/m 1,0 C 1,3 C 8,0 km/h (2 Bft) 100,00 %
06.11.2016 20:52 1,3 C 98 % 1003,2 hPa 0,0 l/m 5,6 km/h (1 Bft) W-SW 252 0 min 0,000 mm 0,0 UV-I 0 W/m 1,0 C 1,3 C 9,7 km/h (2 Bft) 100,00 %
06.11.2016 20:54 1,3 C 98 % 1003,1 hPa 0,0 l/m 5,7 km/h (1 Bft) W 259 0 min 0,000 mm 0,0 UV-I 0 W/m 1,0 C 1,3 C 9,7 km/h (2 Bft) 95,12 %
06.11.2016 20:56 1,3 C 98 % 1003,1 hPa 0,0 l/m 4,7 km/h (1 Bft) W 267 0 min 0,000 mm 0,0 UV-I 0 W/m 1,0 C 1,3 C 6,4 km/h (2 Bft) 100,00 %
06.11.2016 20:58 1,3 C 98 % 1003,1 hPa 0,2 l/m 5,8 km/h (2 Bft) W-SW 248 0 min 0,000 mm 0,0 UV-I 0 W/m 1,0 C 1,3 C 9,7 km/h (2 Bft) 100,00 %
06.11.2016 21:00 1,3 C 98 % 1003,3 hPa 0,0 l/m 4,8 km/h (1 Bft) W-SW 248 0 min 0,000 mm 0,0 UV-I 0 W/m 1,0 C 1,3 C 6,4 km/h (2 Bft) 100,00 %
06.11.2016 21:02 1,3 C 98 % 1003,4 hPa 0,0 l/m 4,3 km/h (1 Bft) SW 232 0 min 0,000 mm 0,0 UV-I 0 W/m 1,0 C 1,3 C 6,4 km/h (2 Bft) 100,00 %
06.11.2016 21:04 1,3 C 98 % 1003,4 hPa 0,0 l/m 5,0 km/h (1 Bft) SW 225 0 min 0,000 mm 0,0 UV-I 0 W/m 1,0 C 1,3 C 6,4 km/h (2 Bft) 98,00 %
06.11.2016 21:06 1,3 C 98 % 1003,4 hPa 0,0 l/m 4,9 km/h (1 Bft) SW 226 0 min 0,000 mm 0,0 UV-I 0 W/m 1,0 C 1,3 C 6,4 km/h (2 Bft) 100,00 %
06.11.2016 21:08 1,3 C 98 % 1003,4 hPa 0,2 l/m 5,6 km/h (1 Bft) SW 235 0 min 0,000 mm 0,0 UV-I 0 W/m 1,0 C 1,3 C 8,0 km/h (2 Bft) 97,56 %
06.11.2016 21:10 1,4 C 98 % 1003,4 hPa 0,0 l/m 4,3 km/h (1 Bft) SW 224 0 min 0,000 mm 0,0 UV-I 0 W/m 1,1 C 1,4 C 6,4 km/h (2 Bft) 100,00 %
06.11.2016 21:12 1,4 C 98 % 1003,4 hPa 0,0 l/m 5,1 km/h (1 Bft) W-SW 253 0 min 0,000 mm 0,0 UV-I 0 W/m 1,1 C 1,4 C 6,4 km/h (2 Bft) 98,21 %
06.11.2016 21:14 1,4 C 98 % 1003,6 hPa 0,0 l/m 5,8 km/h (2 Bft) W-SW 246 0 min 0,000 mm 0,0 UV-I 0 W/m 1,1 C 1,4 C 8,0 km/h (2 Bft) 97,37 %
06.11.2016 21:16 1,4 C 98 % 1003,6 hPa 0,0 l/m 4,8 km/h (1 Bft) SW 232 0 min 0,000 mm 0,0 UV-I 0 W/m 1,1 C 1,4 C 6,4 km/h (2 Bft) 100,00 %
06.11.2016 21:18 1,4 C 98 % 1003,7 hPa 0,0 l/m 4,6 km/h (1 Bft) SW 236 0 min 0,000 mm 0,0 UV-I 0 W/m 1,1 C 1,4 C 8,0 km/h (2 Bft) 100,00 %
06.11.2016 21:20 1,5 C 98 % 1003,7 hPa 0,0 l/m 4,7 km/h (1 Bft) SW 227 0 min 0,000 mm 0,0 UV-I 0 W/m 1,2 C 1,5 C 8,0 km/h (2 Bft) 100,00 %
06.11.2016 21:22 1,5 C 98 % 1003,6 hPa 0,2 l/m 3,7 km/h (1 Bft) SW 225 0 min 0,000 mm 0,0 UV-I 0 W/m 1,2 C 1,5 C 4,8 km/h (1 Bft) 100,00 %
06.11.2016 21:24 1,5 C 98 % 1003,6 hPa 0,0 l/m 2,7 km/h (1 Bft) SW 225 0 min 0,000 mm 0,0 UV-I 0 W/m 1,2 C 1,5 C 4,8 km/h (1 Bft) 100,00 %
06.11.2016 21:26 1,5 C 98 % 1003,6 hPa 0,0 l/m 2,6 km/h (1 Bft) SW 225 0 min 0,000 mm 0,0 UV-I 0 W/m 1,2 C 1,5 C 3,2 km/h (1 Bft) 100,00 %
06.11.2016 21:28 1,5 C 98 % 1003,4 hPa 0,0 l/m 2,5 km/h (1 Bft) SW 225 0 min 0,000 mm 0,0 UV-I 0 W/m 1,2 C 1,5 C 4,8 km/h (1 Bft) 100,00 %
06.11.2016 21:30 1,6 C 98 % 1003,3 hPa 0,0 l/m 1,4 km/h (1 Bft) SW 225 0 min 0,000 mm 0,0 UV-I 0 W/m 1,3 C 1,6 C 3,2 km/h (1 Bft) 100,00 %
06.11.2016 21:32 1,5 C 98 % 1003,3 hPa 0,0 l/m 1,4 km/h (1 Bft) SW 225 0 min 0,000 mm 0,0 UV-I 0 W/m 1,2 C 1,5 C 3,2 km/h (1 Bft) 98,00 %
06.11.2016 21:34 1,5 C 98 % 1003,1 hPa 0,2 l/m 2,2 km/h (1 Bft) SW 229 0 min 0,000 mm 0,0 UV-I 0 W/m 1,2 C 1,5 C 3,2 km/h (1 Bft) 97,87 %
06.11.2016 21:36 1,5 C 98 % 1003,1 hPa 0,0 l/m 1,0 km/h (0 Bft) SW 229 0 min 0,000 mm 0,0 UV-I 0 W/m 1,2 C 1,5 C 1,6 km/h (1 Bft) 100,00 %
06.11.2016 21:38 1,5 C 98 % 1003,1 hPa 0,0 l/m 2,0 km/h (1 Bft) SW 229 0 min 0,000 mm 0,0 UV-I 0 W/m 1,2 C 1,5 C 3,2 km/h (1 Bft) 100,00 %
06.11.2016 21:40 1,5 C 98 % 1003,1 hPa 0,0 l/m 2,6 km/h (1 Bft) W-SW 258 0 min 0,000 mm 0,0 UV-I 0 W/m 1,2 C 1,5 C 4,8 km/h (1 Bft) 97,87 %
06.11.2016 21:42 1,6 C 98 % 1003,2 hPa 0,0 l/m 2,2 km/h (1 Bft) W-SW 258 0 min 0,000 mm 0,0 UV-I 0 W/m 1,3 C 1,6 C 3,2 km/h (1 Bft) 97,37 %
06.11.2016 21:44 1,6 C 98 % 1003,3 hPa 0,0 l/m 2,0 km/h (1 Bft) W-SW 258 0 min 0,000 mm 0,0 UV-I 0 W/m 1,3 C 1,6 C 3,2 km/h (1 Bft) 98,00 %
06.11.2016 21:46 1,6 C 98 % 1003,3 hPa 0,0 l/m 1,7 km/h (1 Bft) W-SW 258 0 min 0,000 mm 0,0 UV-I 0 W/m 1,3 C 1,6 C 3,2 km/h (1 Bft) 100,00 %
06.11.2016 21:48 1,6 C 98 % 1003,4 hPa 0,0 l/m 0,9 km/h (0 Bft) W-SW 258 0 min 0,000 mm 0,0 UV-I 0 W/m 1,3 C 1,6 C 3,2 km/h (1 Bft) 100,00 %
06.11.2016 21:50 1,6 C 98 % 1003,4 hPa 0,0 l/m 1,0 km/h (0 Bft) W-SW 258 0 min 0,000 mm 0,0 UV-I 0 W/m 1,3 C 1,6 C 1,6 km/h (1 Bft) 98,00 %
06.11.2016 21:52 1,6 C 98 % 1003,6 hPa 0,2 l/m 1,8 km/h (1 Bft) W-SW 258 0 min 0,000 mm 0,0 UV-I 0 W/m 1,3 C 1,6 C 3,2 km/h (1 Bft) 100,00 %
06.11.2016 21:54 1,6 C 98 % 1003,6 hPa 0,0 l/m 2,2 km/h (1 Bft) W-SW 258 0 min 0,000 mm 0,0 UV-I 0 W/m 1,3 C 1,6 C 4,8 km/h (1 Bft) 96,00 %
06.11.2016 21:56 1,6 C 98 % 1003,6 hPa 0,0 l/m 3,0 km/h (1 Bft) W-SW 258 0 min 0,000 mm 0,0 UV-I 0 W/m 1,3 C 1,6 C 4,8 km/h (1 Bft) 100,00 %
06.11.2016 21:58 1,6 C 98 % 1003,5 hPa 0,0 l/m 2,9 km/h (1 Bft) W-SW 258 0 min 0,000 mm 0,0 UV-I 0 W/m 1,3 C 1,6 C 4,8 km/h (1 Bft) 100,00 %
06.11.2016 22:00 1,6 C 98 % 1003,6 hPa 0,0 l/m 2,6 km/h (1 Bft) W-SW 258 0 min 0,000 mm 0,0 UV-I 0 W/m 1,3 C 1,6 C 4,8 km/h (1 Bft) 100,00 %
06.11.2016 22:02 1,6 C 98 % 1003,6 hPa 0,0 l/m 3,2 km/h (1 Bft) W-SW 258 0 min 0,000 mm 0,0 UV-I 0 W/m 1,3 C 1,6 C 4,8 km/h (1 Bft) 100,00 %
06.11.2016 22:04 1,6 C 98 % 1003,6 hPa 0,2 l/m 3,3 km/h (1 Bft) W-SW 240 0 min 0,000 mm 0,0 UV-I 0 W/m 1,3 C 1,6 C 4,8 km/h (1 Bft) 100,00 %
06.11.2016 22:06 1,7 C 98 % 1003,6 hPa 0,0 l/m 4,8 km/h (1 Bft) SW 232 0 min 0,000 mm 0,0 UV-I 0 W/m 1,4 C 1,7 C 6,4 km/h (2 Bft) 100,00 %
06.11.2016 22:08 1,7 C 98 % 1003,6 hPa 0,0 l/m 5,2 km/h (1 Bft) SW 219 0 min 0,000 mm 0,0 UV-I 0 W/m 1,4 C 1,7 C 6,4 km/h (2 Bft) 100,00 %
06.11.2016 22:10 1,7 C 98 % 1003,6 hPa 0,0 l/m 5,4 km/h (1 Bft) SW 222 0 min 0,000 mm 0,0 UV-I 0 W/m 1,4 C 1,7 C 8,0 km/h (2 Bft) 98,00 %
06.11.2016 22:12 1,7 C 98 % 1003,4 hPa 0,0 l/m 5,7 km/h (1 Bft) W-SW 244 0 min 0,000 mm 0,0 UV-I 0 W/m 1,4 C 1,7 C 9,7 km/h (2 Bft) 98,11 %
06.11.2016 22:14 1,7 C 98 % 1003,4 hPa 0,0 l/m 5,2 km/h (1 Bft) SW 236 0 min 0,000 mm 0,0 UV-I 0 W/m 1,4 C 1,7 C 8,0 km/h (2 Bft) 100,00 %
06.11.2016 22:16 1,7 C 98 % 1003,4 hPa 0,0 l/m 5,7 km/h (1 Bft) SW 236 0 min 0,000 mm 0,0 UV-I 0 W/m 1,4 C 1,7 C 9,7 km/h (2 Bft) 96,00 %
06.11.2016 22:18 1,7 C 98 % 1003,4 hPa 0,2 l/m 5,8 km/h (2 Bft) W-SW 242 0 min 0,000 mm 0,0 UV-I 0 W/m 1,4 C 1,7 C 8,0 km/h (2 Bft) 98,11 %
06.11.2016 22:20 1,7 C 98 % 1003,4 hPa 0,0 l/m 4,9 km/h (1 Bft) W 263 0 min 0,000 mm 0,0 UV-I 0 W/m 1,4 C 1,7 C 9,7 km/h (2 Bft) 94,29 %
06.11.2016 22:22 1,8 C 98 % 1003,5 hPa 0,0 l/m 7,2 km/h (2 Bft) W 263 0 min 0,000 mm 0,0 UV-I 0 W/m 1,5 C 1,0 C 11,3 km/h (2 Bft) 98,18 %
06.11.2016 22:24 1,8 C 98 % 1003,5 hPa 0,0 l/m 6,6 km/h (2 Bft) W 261 0 min 0,000 mm 0,0 UV-I 0 W/m 1,5 C 1,6 C 12,9 km/h (3 Bft) 97,56 %
06.11.2016 22:26 1,8 C 98 % 1003,5 hPa 0,0 l/m 7,4 km/h (2 Bft) W-SW 252 0 min 0,000 mm 0,0 UV-I 0 W/m 1,5 C 0,8 C 11,3 km/h (2 Bft) 98,21 %
06.11.2016 22:28 1,8 C 98 % 1003,5 hPa 0,0 l/m 7,8 km/h (2 Bft) SW 232 0 min 0,000 mm 0,0 UV-I 0 W/m 1,5 C 0,4 C 12,9 km/h (3 Bft) 95,12 %
06.11.2016 22:30 1,8 C 98 % 1003,5 hPa 0,2 l/m 7,0 km/h (2 Bft) W-SW 240 0 min 0,000 mm 0,0 UV-I 0 W/m 1,5 C 1,2 C 11,3 km/h (2 Bft) 98,00 %
06.11.2016 22:32 1,8 C 98 % 1003,5 hPa 0,0 l/m 8,2 km/h (2 Bft) SW 223 0 min 0,000 mm 0,0 UV-I 0 W/m 1,5 C 0,1 C 12,9 km/h (3 Bft) 97,56 %
06.11.2016 22:34 1,8 C 98 % 1003,5 hPa 0,0 l/m 5,6 km/h (1 Bft) SW 236 0 min 0,000 mm 0,0 UV-I 0 W/m 1,5 C 1,8 C 9,7 km/h (2 Bft) 97,87 %
06.11.2016 22:36 1,8 C 98 % 1003,5 hPa 0,0 l/m 7,9 km/h (2 Bft) W-SW 244 0 min 0,000 mm 0,0 UV-I 0 W/m 1,5 C 0,3 C 11,3 km/h (2 Bft) 96,23 %
06.11.2016 22:38 1,8 C 98 % 1003,5 hPa 0,0 l/m 7,4 km/h (2 Bft) W-SW 238 0 min 0,000 mm 0,0 UV-I 0 W/m 1,5 C 0,8 C 11,3 km/h (2 Bft) 100,00 %
06.11.2016 22:40 1,8 C 98 % 1003,5 hPa 0,0 l/m 5,7 km/h (1 Bft) W-SW 238 0 min 0,000 mm 0,0 UV-I 0 W/m 1,5 C 1,8 C 11,3 km/h (2 Bft) 97,01 %
06.11.2016 22:42 1,8 C 98 % 1003,5 hPa 0,0 l/m 5,3 km/h (1 Bft) SW 236 0 min 0,000 mm 0,0 UV-I 0 W/m 1,5 C 1,8 C 8,0 km/h (2 Bft) 97,62 %
06.11.2016 22:44 1,9 C 98 % 1003,6 hPa 0,0 l/m 6,3 km/h (2 Bft) W-SW 244 0 min 0,000 mm 0,0 UV-I 0 W/m 1,6 C 1,9 C 8,0 km/h (2 Bft) 98,00 %
06.11.2016 22:46 1,9 C 98 % 1003,6 hPa 0,0 l/m 6,4 km/h (2 Bft) W-SW 250 0 min 0,000 mm 0,0 UV-I 0 W/m 1,6 C 1,9 C 9,7 km/h (2 Bft) 98,00 %
06.11.2016 22:48 1,9 C 98 % 1003,5 hPa 0,2 l/m 6,5 km/h (2 Bft) W 269 0 min 0,000 mm 0,0 UV-I 0 W/m 1,6 C 1,8 C 11,3 km/h (2 Bft) 97,87 %
06.11.2016 22:50 1,9 C 98 % 1003,5 hPa 0,0 l/m 5,7 km/h (1 Bft) W-SW 245 0 min 0,000 mm 0,0 UV-I 0 W/m 1,6 C 1,9 C 8,0 km/h (2 Bft) 97,56 %
06.11.2016 22:52 1,9 C 98 % 1003,5 hPa 0,0 l/m 5,4 km/h (1 Bft) W 272 0 min 0,000 mm 0,0 UV-I 0 W/m 1,6 C 1,9 C 11,3 km/h (2 Bft) 98,00 %
06.11.2016 22:54 1,9 C 98 % 1003,4 hPa 0,0 l/m 7,2 km/h (2 Bft) SW 227 0 min 0,000 mm 0,0 UV-I 0 W/m 1,6 C 1,1 C 11,3 km/h (2 Bft) 100,00 %
06.11.2016 22:56 1,9 C 98 % 1003,4 hPa 0,0 l/m 5,9 km/h (2 Bft) W-SW 256 0 min 0,000 mm 0,0 UV-I 0 W/m 1,6 C 1,9 C 6,4 km/h (2 Bft) 100,00 %
06.11.2016 22:58 1,9 C 98 % 1003,4 hPa 0,0 l/m 6,5 km/h (2 Bft) W-SW 257 0 min 0,000 mm 0,0 UV-I 0 W/m 1,6 C 1,8 C 9,7 km/h (2 Bft) 100,00 %
06.11.2016 23:00 1,9 C 98 % 1003,3 hPa 0,0 l/m 5,6 km/h (1 Bft) W 263 0 min 0,000 mm 0,0 UV-I 0 W/m 1,6 C 1,9 C 8,0 km/h (2 Bft) 97,87 %
06.11.2016 23:02 1,9 C 98 % 1003,3 hPa 0,2 l/m 3,9 km/h (1 Bft) W 273 0 min 0,000 mm 0,0 UV-I 0 W/m 1,6 C 1,9 C 4,8 km/h (1 Bft) 100,00 %
06.11.2016 23:04 1,9 C 98 % 1003,3 hPa 0,0 l/m 3,1 km/h (1 Bft) W 273 0 min 0,000 mm 0,0 UV-I 0 W/m 1,6 C 1,9 C 4,8 km/h (1 Bft) 100,00 %
06.11.2016 23:06 1,9 C 98 % 1003,4 hPa 0,0 l/m 3,7 km/h (1 Bft) W-SW 255 0 min 0,000 mm 0,0 UV-I 0 W/m 1,6 C 1,9 C 6,4 km/h (2 Bft) 100,00 %
06.11.2016 23:08 1,9 C 98 % 1003,5 hPa 0,0 l/m 3,9 km/h (1 Bft) W-SW 257 0 min 0,000 mm 0,0 UV-I 0 W/m 1,6 C 1,9 C 6,4 km/h (2 Bft) 100,00 %
06.11.2016 23:10 1,9 C 98 % 1003,4 hPa 0,0 l/m 5,0 km/h (1 Bft) W-SW 245 0 min 0,000 mm 0,0 UV-I 0 W/m 1,6 C 1,9 C 6,4 km/h (2 Bft) 98,11 %
06.11.2016 23:12 1,9 C 98 % 1003,4 hPa 0,0 l/m 4,6 km/h (1 Bft) W-SW 254 0 min 0,000 mm 0,0 UV-I 0 W/m 1,6 C 1,9 C 6,4 km/h (2 Bft) 100,00 %
06.11.2016 23:14 1,9 C 98 % 1003,4 hPa 0,0 l/m 4,6 km/h (1 Bft) W-SW 254 0 min 0,000 mm 0,0 UV-I 0 W/m 1,6 C 1,9 C 6,4 km/h (2 Bft) 100,00 %
06.11.2016 23:16 2,0 C 98 % 1003,5 hPa 0,0 l/m 4,9 km/h (1 Bft) W-SW 238 0 min 0,000 mm 0,0 UV-I 0 W/m 1,7 C 2,0 C 8,0 km/h (2 Bft) 100,00 %
06.11.2016 23:18 2,0 C 98 % 1003,5 hPa 0,0 l/m 4,6 km/h (1 Bft) W 265 0 min 0,000 mm 0,0 UV-I 0 W/m 1,7 C 2,0 C 6,4 km/h (2 Bft) 98,51 %
06.11.2016 23:20 2,0 C 98 % 1003,6 hPa 0,0 l/m 4,9 km/h (1 Bft) W 269 0 min 0,000 mm 0,0 UV-I 0 W/m 1,7 C 2,0 C 6,4 km/h (2 Bft) 100,00 %
06.11.2016 23:22 2,0 C 98 % 1003,6 hPa 0,0 l/m 5,7 km/h (1 Bft) W-SW 255 0 min 0,000 mm 0,0 UV-I 0 W/m 1,7 C 2,0 C 8,0 km/h (2 Bft) 100,00 %
06.11.2016 23:24 2,0 C 98 % 1003,7 hPa 0,0 l/m 5,8 km/h (2 Bft) W-SW 255 0 min 0,000 mm 0,0 UV-I 0 W/m 1,7 C 2,0 C 8,0 km/h (2 Bft) 94,87 %
06.11.2016 23:26 2,0 C 98 % 1003,7 hPa 0,2 l/m 5,3 km/h (1 Bft) SW 232 0 min 0,000 mm 0,0 UV-I 0 W/m 1,7 C 2,0 C 8,0 km/h (2 Bft) 98,11 %
06.11.2016 23:28 2,0 C 98 % 1003,8 hPa 0,0 l/m 5,7 km/h (1 Bft) SW 232 0 min 0,000 mm 0,0 UV-I 0 W/m 1,7 C 2,0 C 9,7 km/h (2 Bft) 100,00 %
06.11.2016 23:30 2,0 C 98 % 1003,8 hPa 0,0 l/m 7,5 km/h (2 Bft) SW 221 0 min 0,000 mm 0,0 UV-I 0 W/m 1,7 C 0,9 C 11,3 km/h (2 Bft) 100,00 %
06.11.2016 23:32 2,0 C 98 % 1003,8 hPa 0,0 l/m 6,3 km/h (2 Bft) SW 236 0 min 0,000 mm 0,0 UV-I 0 W/m 1,7 C 2,0 C 9,7 km/h (2 Bft) 100,00 %
06.11.2016 23:34 2,0 C 98 % 1003,9 hPa 0,0 l/m 6,9 km/h (2 Bft) W-SW 242 0 min 0,000 mm 0,0 UV-I 0 W/m 1,7 C 1,5 C 11,3 km/h (2 Bft) 100,00 %
06.11.2016 23:36 2,0 C 98 % 1003,9 hPa 0,0 l/m 5,8 km/h (2 Bft) SW 229 0 min 0,000 mm 0,0 UV-I 0 W/m 1,7 C 2,0 C 8,0 km/h (2 Bft) 100,00 %
06.11.2016 23:38 2,1 C 98 % 1003,9 hPa 0,0 l/m 7,0 km/h (2 Bft) SW 232 0 min 0,000 mm 0,0 UV-I 0 W/m 1,8 C 1,5 C 9,7 km/h (2 Bft) 100,00 %
06.11.2016 23:40 2,1 C 98 % 1003,9 hPa 0,0 l/m 8,2 km/h (2 Bft) SW 223 0 min 0,000 mm 0,0 UV-I 0 W/m 1,8 C 0,4 C 12,9 km/h (3 Bft) 100,00 %
06.11.2016 23:42 2,1 C 98 % 1004,0 hPa 0,2 l/m 5,4 km/h (1 Bft) SW 234 0 min 0,000 mm 0,0 UV-I 0 W/m 1,8 C 2,1 C 8,0 km/h (2 Bft) 100,00 %
06.11.2016 23:44 2,1 C 98 % 1004,0 hPa 0,0 l/m 4,7 km/h (1 Bft) SW 217 0 min 0,000 mm 0,0 UV-I 0 W/m 1,8 C 2,1 C 8,0 km/h (2 Bft) 100,00 %
06.11.2016 23:46 2,1 C 98 % 1004,0 hPa 0,0 l/m 5,1 km/h (1 Bft) SW 221 0 min 0,000 mm 0,0 UV-I 0 W/m 1,8 C 2,1 C 8,0 km/h (2 Bft) 100,00 %
06.11.2016 23:48 2,1 C 98 % 1004,0 hPa 0,0 l/m 6,8 km/h (2 Bft) S-SW 212 0 min 0,000 mm 0,0 UV-I 0 W/m 1,8 C 1,7 C 11,3 km/h (2 Bft) 100,00 %
06.11.2016 23:50 2,1 C 98 % 1004,0 hPa 0,0 l/m 7,3 km/h (2 Bft) SW 229 0 min 0,000 mm 0,0 UV-I 0 W/m 1,8 C 1,2 C 11,3 km/h (2 Bft) 98,00 %
06.11.2016 23:52 2,1 C 98 % 1004,0 hPa 0,0 l/m 7,1 km/h (2 Bft) SW 216 0 min 0,000 mm 0,0 UV-I 0 W/m 1,8 C 1,4 C 11,3 km/h (2 Bft) 100,00 %
06.11.2016 23:54 2,1 C 98 % 1004,0 hPa 0,0 l/m 5,6 km/h (1 Bft) W-SW 249 0 min 0,000 mm 0,0 UV-I 0 W/m 1,8 C 2,1 C 8,0 km/h (2 Bft) 100,00 %
06.11.2016 23:56 2,1 C 98 % 1004,0 hPa 0,0 l/m 5,5 km/h (1 Bft) S-SW 211 0 min 0,000 mm 0,0 UV-I 0 W/m 1,8 C 2,1 C 8,0 km/h (2 Bft) 97,44 %
06.11.2016 23:58 2,2 C 98 % 1004,0 hPa 0,0 l/m 4,2 km/h (1 Bft) W 262 0 min 0,000 mm 0,0 UV-I 0 W/m 1,9 C 2,2 C 6,4 km/h (2 Bft) 100,00 %
_ Min-Zeit 18:26 13:30 09:16 - 00:14 - - - - - - 18:26 15:20 00:14 16:14
Minimum _ 0,5 C 96 % 999,6 hPa - 0,0 km/h (0 Bft) - - - - - - 0,1 C -5,2 C 0,0 km/h (0 Bft) 92,45 %
_ Max-Zeit 08:54 04:54 23:42 00:40 15:20 - - 00:00 10:00 00:00 12:42 08:56 08:56 14:42 00:02
Maximum _ 6,2 C 99 % 1004,0 hPa 0,2 l/m 19,1 km/h
W-SW (3 Bft)
- - 0 min 0,026 mm 0,0 UV-I 92 W/m 6,1 C 6,2 C 29,0 km/h
W-SW (5 Bft)
100,00 %
Durchschnitt _ 3,8 C 98 % 1001,3 hPa #22,6 l/m 5,3 km/h (1 Bft) W-SW - #0 min. #0,127 mm 0,0 UV-I 36 W/m 3,5 C 2,8 C 8,4 km/h (2 Bft) 98,65 %